GFSNW_prec_precacc12_048.txt.gz
Total_Precipitation_Accumulation
0.10 0.07 0.10 0.13 0.15 0.14 0.23 0.20 0.13 0.03 0.05 0.25 0.11 0.03 0.00 0.00 0.00 0.00 0.00 0.00 0.00 0.00 0.00 0.00 0.00 0.00 0.00 0.00 0.00 0.00 0.00 0.00 0.00 0.00 0.00 0.00 0.00 0.00 0.00 0.00 0.00 0.00 0.00 0.00
0.16 0.14 0.11 0.15 0.20 0.22 0.22 0.25 0.12 0.23 0.10 0.08 0.03 0.00 0.00 0.00 0.00 0.00 0.00 0.00 0.00 0.00 0.00 0.00 0.00 0.00 0.00 0.00 0.00 0.00 0.00 0.00 0.00 0.00 0.00 0.00 0.00 0.00 0.00 0.00 0.00 0.00 0.00 0.00
0.24 0.19 0.16 0.15 0.21 0.27 0.18 0.23 0.21 0.39 0.26 0.00 0.00 0.00 0.00 0.00 0.00 0.00 0.00 0.00 0.00 0.00 0.00 0.00 0.00 0.00 0.00 0.00 0.00 0.00 0.00 0.00 0.00 0.00 0.00 0.00 0.00 0.00 0.00 0.00 0.00 0.00 0.00 0.00
0.28 0.23 0.21 0.19 0.23 0.33 0.33 0.33 0.12 0.10 0.09 0.01 0.00 0.00 0.00 0.00 0.00 0.00 0.00 0.00 0.00 0.00 0.00 0.00 0.00 0.00 0.00 0.00 0.00 0.00 0.00 0.00 0.00 0.00 0.00 0.00 0.00 0.00 0.00 0.00 0.00 0.00 0.00 0.00
0.29 0.30 0.26 0.25 0.24 0.47 0.66 0.30 0.04 0.03 0.01 0.00 0.01 0.01 0.00 0.00 0.00 0.00 0.00 0.00 0.00 0.00 0.00 0.00 0.00 0.00 0.00 0.00 0.00 0.00 0.00 0.00 0.00 0.00 0.00 0.00 0.00 0.00 0.00 0.00 0.00 0.00 0.00 0.00
0.30 0.34 0.31 0.31 0.27 0.65 1.13 0.25 0.02 0.03 0.02 0.01 0.01 0.00 0.00 0.00 0.00 0.00 0.00 0.00 0.00 0.00 0.00 0.01 0.00 0.00 0.00 0.00 0.00 0.00 0.00 0.00 0.00 0.00 0.00 0.00 0.00 0.00 0.00 0.00 0.00 0.00 0.00 0.00
0.32 0.33 0.32 0.35 0.29 0.47 0.66 0.18 0.03 0.11 0.05 0.04 0.00 0.00 0.00 0.00 0.00 0.00 0.00 0.00 0.00 0.00 0.00 0.00 0.00 0.00 0.00 0.00 0.00 0.00 0.00 0.00 0.00 0.00 0.00 0.00 0.00 0.00 0.00 0.00 0.00 0.00 0.00 0.00
0.32 0.32 0.32 0.33 0.27 0.21 0.33 0.11 0.07 0.16 0.11 0.02 0.01 0.00 0.00 0.01 0.00 0.00 0.00 0.00 0.00 0.01 0.00 0.00 0.00 0.01 0.01 0.00 0.00 0.00 0.00 0.00 0.00 0.00 0.00 0.00 0.00 0.00 0.00 0.00 0.00 0.00 0.00 0.00
0.28 0.29 0.28 0.26 0.23 0.12 0.20 0.14 0.14 0.15 0.23 0.04 0.03 0.02 0.00 0.01 0.01 0.00 0.00 0.00 0.00 0.01 0.03 0.02 0.01 0.02 0.02 0.00 0.00 0.00 0.00 0.00 0.00 0.00 0.00 0.00 0.00 0.00 0.00 0.00 0.00 0.00 0.00 0.00
0.25 0.22 0.21 0.21 0.18 0.11 0.16 0.13 0.29 0.18 0.31 0.13 0.10 0.06 0.02 0.01 0.01 0.00 0.00 0.00 0.00 0.02 0.03 0.02 0.01 0.01 0.02 0.01 0.00 0.00 0.00 0.00 0.00 0.00 0.00 0.00 0.00 0.00 0.00 0.00 0.00 0.00 0.00 0.00
0.23 0.19 0.19 0.21 0.17 0.11 0.13 0.09 0.33 0.30 0.24 0.17 0.19 0.14 0.10 0.02 0.02 0.01 0.00 0.01 0.01 0.03 0.04 0.02 0.02 0.01 0.00 0.01 0.00 0.01 0.00 0.00 0.00 0.00 0.00 0.00 0.00 0.00 0.00 0.00 0.00 0.00 0.00 0.00
0.25 0.21 0.20 0.19 0.16 0.12 0.09 0.09 0.30 0.38 0.21 0.24 0.22 0.10 0.08 0.02 0.00 0.00 0.00 0.00 0.00 0.01 0.02 0.01 0.02 0.01 0.00 0.00 0.00 0.00 0.00 0.00 0.00 0.00 0.00 0.00 0.00 0.00 0.00 0.00 0.00 0.00 0.00 0.00
0.29 0.24 0.21 0.20 0.18 0.19 0.10 0.09 0.16 0.40 0.32 0.14 0.14 0.15 0.13 0.07 0.01 0.00 0.00 0.00 0.00 0.02 0.03 0.05 0.03 0.02 0.00 0.00 0.00 0.00 0.00 0.00 0.00 0.00 0.00 0.00 0.00 0.00 0.00 0.00 0.00 0.00 0.00 0.00
0.36 0.31 0.30 0.25 0.26 0.31 0.10 0.07 0.18 0.26 0.32 0.25 0.19 0.16 0.13 0.12 0.07 0.00 0.00 0.01 0.03 0.06 0.06 0.07 0.05 0.02 0.01 0.00 0.00 0.00 0.00 0.01 0.01 0.00 0.00 0.00 0.00 0.00 0.00 0.00 0.00 0.00 0.00 0.00
0.36 0.33 0.29 0.28 0.30 0.25 0.08 0.06 0.16 0.18 0.26 0.30 0.22 0.11 0.17 0.25 0.14 0.09 0.02 0.01 0.00 0.03 0.10 0.06 0.02 0.02 0.02 0.01 0.01 0.00 0.00 0.00 0.00 0.00 0.01 0.00 0.00 0.00 0.00 0.00 0.00 0.00 0.00 0.00
0.29 0.23 0.23 0.19 0.19 0.19 0.10 0.19 0.22 0.17 0.21 0.42 0.19 0.09 0.06 0.22 0.26 0.26 0.12 0.04 0.03 0.04 0.06 0.05 0.02 0.01 0.02 0.01 0.00 0.00 0.00 0.00 0.01 0.00 0.01 0.00 0.00 0.00 0.00 0.00 0.00 0.00 0.00 0.00
0.23 0.20 0.15 0.13 0.16 0.10 0.10 0.14 0.09 0.09 0.28 0.40 0.19 0.07 0.04 0.24 0.39 0.34 0.39 0.17 0.12 0.10 0.07 0.03 0.03 0.02 0.01 0.01 0.00 0.00 0.00 0.00 0.01 0.01 0.00 0.00 0.00 0.00 0.00 0.00 0.00 0.00 0.00 0.00
0.20 0.17 0.11 0.13 0.13 0.06 0.06 0.12 0.16 0.19 0.37 0.40 0.29 0.14 0.25 0.26 0.61 0.32 0.34 0.27 0.22 0.23 0.17 0.03 0.01 0.03 0.02 0.01 0.00 0.00 0.00 0.00 0.00 0.00 0.00 0.00 0.00 0.00 0.00 0.00 0.00 0.00 0.00 0.00
0.15 0.16 0.24 0.31 0.20 0.07 0.08 0.29 0.41 0.31 0.31 0.43 0.24 0.20 0.29 0.35 0.56 0.74 0.38 0.29 0.31 0.27 0.32 0.29 0.14 0.03 0.02 0.01 0.00 0.00 0.00 0.00 0.00 0.00 0.00 0.00 0.00 0.00 0.00 0.00 0.00 0.00 0.00 0.00
0.16 0.23 0.37 0.28 0.16 0.14 0.43 0.66 0.78 0.76 0.41 0.32 0.32 0.22 0.16 0.37 0.36 0.62 0.86 0.65 0.28 0.17 0.20 0.24 0.29 0.21 0.09 0.02 0.00 0.00 0.00 0.00 0.00 0.00 0.01 0.01 0.01 0.01 0.01 0.01 0.01 0.02 0.02 0.03
0.19 0.37 0.43 0.31 0.35 0.39 0.53 0.69 0.78 0.56 0.34 0.11 0.12 0.11 0.19 0.17 0.44 0.40 0.35 0.56 0.81 0.34 0.15 0.17 0.23 0.18 0.08 0.04 0.03 0.03 0.05 0.06 0.05 0.04 0.02 0.02 0.02 0.02 0.02 0.03 0.05 0.07 0.10 0.12
0.48 0.57 0.51 0.47 0.47 0.40 0.38 0.50 0.47 0.29 0.14 0.10 0.09 0.09 0.13 0.13 0.19 0.45 0.37 0.22 0.33 0.48 0.27 0.16 0.11 0.07 0.08 0.15 0.18 0.16 0.14 0.13 0.11 0.09 0.07 0.06 0.06 0.06 0.06 0.07 0.09 0.12 0.16 0.20
0.84 0.56 0.52 0.40 0.31 0.23 0.24 0.22 0.16 0.24 0.20 0.11 0.12 0.08 0.05 0.06 0.07 0.17 0.31 0.33 0.19 0.12 0.23 0.36 0.25 0.16 0.15 0.15 0.12 0.11 0.10 0.09 0.08 0.06 0.04 0.03 0.05 0.09 0.11 0.17 0.24 0.27 0.27 0.26
0.76 0.56 0.31 0.28 0.22 0.17 0.14 0.10 0.08 0.18 0.19 0.12 0.13 0.10 0.10 0.07 0.08 0.06 0.07 0.15 0.15 0.16 0.17 0.16 0.17 0.22 0.21 0.21 0.22 0.21 0.22 0.22 0.21 0.18 0.16 0.18 0.18 0.21 0.26 0.24 0.21 0.16 0.14 0.13
0.46 0.24 0.27 0.25 0.28 0.28 0.27 0.18 0.16 0.19 0.37 0.24 0.19 0.17 0.06 0.08 0.14 0.11 0.05 0.05 0.08 0.08 0.11 0.12 0.12 0.14 0.14 0.14 0.16 0.16 0.19 0.22 0.24 0.26 0.23 0.21 0.20 0.16 0.16 0.15 0.12 0.09 0.07 0.05
0.08 0.27 0.41 0.35 0.40 0.38 0.33 0.29 0.29 0.27 0.34 0.26 0.12 0.10 0.04 0.12 0.06 0.03 0.06 0.04 0.06 0.10 0.13 0.15 0.16 0.16 0.16 0.19 0.22 0.25 0.27 0.24 0.19 0.17 0.15 0.13 0.12 0.08 0.05 0.04 0.02 0.02 0.01 0.01
0.14 0.40 0.51 0.46 0.39 0.37 0.34 0.31 0.26 0.19 0.13 0.06 0.01 0.03 0.09 0.08 0.05 0.06 0.09 0.12 0.17 0.20 0.21 0.23 0.21 0.20 0.21 0.24 0.29 0.31 0.25 0.15 0.11 0.11 0.10 0.06 0.03 0.01 0.00 0.00 0.00 0.00 0.01 0.01

GFSNW_prec_precacc12_051.txt.gz
Total_Precipitation_Accumulation
0.09 0.07 0.11 0.16 0.15 0.16 0.25 0.23 0.14 0.04 0.11 0.29 0.14 0.04 0.00 0.00 0.00 0.00 0.00 0.00 0.00 0.00 0.00 0.00 0.00 0.00 0.00 0.00 0.00 0.00 0.00 0.00 0.00 0.00 0.00 0.00 0.00 0.00 0.00 0.00 0.00 0.00 0.00 0.00
0.14 0.12 0.13 0.18 0.21 0.27 0.32 0.29 0.13 0.27 0.15 0.12 0.05 0.01 0.00 0.00 0.00 0.00 0.00 0.00 0.00 0.00 0.00 0.00 0.00 0.00 0.00 0.00 0.00 0.00 0.00 0.00 0.00 0.00 0.00 0.00 0.00 0.00 0.00 0.00 0.00 0.00 0.00 0.00
0.23 0.19 0.18 0.18 0.26 0.33 0.27 0.28 0.26 0.46 0.28 0.01 0.00 0.00 0.00 0.00 0.00 0.00 0.00 0.00 0.00 0.00 0.00 0.00 0.00 0.00 0.00 0.00 0.00 0.00 0.00 0.00 0.00 0.00 0.00 0.00 0.00 0.00 0.00 0.00 0.00 0.00 0.00 0.00
0.27 0.31 0.25 0.25 0.34 0.43 0.47 0.49 0.19 0.19 0.13 0.02 0.00 0.00 0.00 0.00 0.00 0.00 0.00 0.01 0.00 0.00 0.00 0.00 0.00 0.00 0.00 0.00 0.00 0.00 0.00 0.00 0.00 0.00 0.00 0.00 0.00 0.00 0.00 0.00 0.00 0.00 0.00 0.00
0.28 0.32 0.38 0.32 0.36 0.55 0.81 0.54 0.07 0.03 0.01 0.00 0.01 0.01 0.00 0.00 0.00 0.00 0.00 0.01 0.00 0.00 0.00 0.00 0.00 0.00 0.00 0.00 0.00 0.00 0.00 0.00 0.00 0.00 0.00 0.00 0.00 0.00 0.00 0.00 0.00 0.00 0.00 0.00
0.31 0.35 0.37 0.44 0.35 0.69 1.41 0.50 0.02 0.05 0.03 0.02 0.02 0.00 0.00 0.00 0.00 0.00 0.00 0.00 0.00 0.00 0.00 0.02 0.00 0.00 0.00 0.00 0.00 0.00 0.00 0.00 0.00 0.00 0.00 0.00 0.00 0.00 0.00 0.00 0.00 0.00 0.00 0.00
0.37 0.37 0.35 0.44 0.40 0.48 0.78 0.33 0.03 0.11 0.07 0.08 0.01 0.00 0.00 0.00 0.00 0.00 0.00 0.00 0.00 0.00 0.00 0.01 0.01 0.01 0.00 0.00 0.00 0.00 0.00 0.00 0.00 0.00 0.00 0.00 0.00 0.00 0.00 0.00 0.00 0.00 0.00 0.00
0.46 0.38 0.38 0.38 0.40 0.28 0.21 0.08 0.05 0.14 0.11 0.03 0.01 0.00 0.00 0.01 0.00 0.00 0.00 0.00 0.00 0.00 0.00 0.00 0.00 0.01 0.02 0.01 0.00 0.00 0.00 0.00 0.00 0.00 0.00 0.00 0.00 0.00 0.00 0.00 0.00 0.00 0.00 0.00
0.42 0.43 0.37 0.33 0.32 0.25 0.12 0.10 0.04 0.13 0.19 0.04 0.02 0.02 0.01 0.01 0.03 0.03 0.00 0.00 0.00 0.00 0.00 0.00 0.01 0.02 0.03 0.01 0.03 0.00 0.00 0.00 0.02 0.01 0.00 0.00 0.00 0.00 0.00 0.00 0.00 0.00 0.00 0.00
0.36 0.37 0.31 0.27 0.26 0.27 0.13 0.10 0.13 0.12 0.24 0.11 0.09 0.07 0.03 0.01 0.03 0.04 0.01 0.01 0.03 0.00 0.00 0.01 0.01 0.01 0.02 0.02 0.02 0.02 0.00 0.00 0.01 0.01 0.00 0.00 0.00 0.00 0.00 0.00 0.00 0.00 0.00 0.00
0.32 0.34 0.27 0.25 0.25 0.31 0.15 0.09 0.21 0.18 0.19 0.20 0.20 0.16 0.13 0.03 0.05 0.05 0.02 0.06 0.04 0.02 0.00 0.01 0.02 0.01 0.00 0.01 0.00 0.01 0.01 0.01 0.01 0.01 0.02 0.00 0.00 0.00 0.00 0.00 0.00 0.00 0.00 0.00
0.32 0.28 0.23 0.23 0.28 0.33 0.15 0.11 0.24 0.32 0.20 0.27 0.21 0.12 0.12 0.04 0.00 0.00 0.01 0.03 0.00 0.00 0.00 0.00 0.02 0.02 0.01 0.00 0.00 0.00 0.00 0.02 0.03 0.01 0.00 0.00 0.00 0.00 0.00 0.00 0.00 0.00 0.00 0.00
0.27 0.24 0.23 0.28 0.38 0.33 0.13 0.09 0.15 0.39 0.34 0.07 0.12 0.16 0.12 0.10 0.01 0.00 0.05 0.01 0.00 0.00 0.00 0.01 0.02 0.02 0.00 0.00 0.00 0.00 0.00 0.00 0.00 0.00 0.00 0.00 0.00 0.00 0.00 0.00 0.00 0.00 0.00 0.00
0.25 0.26 0.31 0.41 0.46 0.33 0.07 0.03 0.15 0.24 0.25 0.07 0.06 0.14 0.08 0.11 0.08 0.01 0.02 0.02 0.01 0.03 0.01 0.03 0.04 0.02 0.01 0.00 0.00 0.00 0.00 0.01 0.01 0.00 0.00 0.00 0.00 0.00 0.00 0.00 0.00 0.00 0.00 0.00
0.29 0.33 0.39 0.51 0.45 0.17 0.04 0.05 0.16 0.16 0.16 0.19 0.05 0.05 0.14 0.20 0.16 0.11 0.03 0.03 0.03 0.04 0.06 0.04 0.01 0.01 0.01 0.01 0.01 0.00 0.00 0.00 0.00 0.00 0.01 0.00 0.00 0.00 0.00 0.00 0.00 0.00 0.00 0.00
0.28 0.35 0.42 0.38 0.15 0.07 0.09 0.25 0.23 0.15 0.15 0.28 0.10 0.06 0.04 0.17 0.23 0.24 0.14 0.06 0.05 0.04 0.05 0.05 0.02 0.01 0.02 0.01 0.00 0.00 0.00 0.00 0.01 0.00 0.01 0.00 0.00 0.00 0.00 0.00 0.00 0.00 0.00 0.00
0.28 0.30 0.19 0.10 0.10 0.06 0.10 0.15 0.07 0.09 0.26 0.30 0.16 0.09 0.05 0.19 0.41 0.30 0.21 0.12 0.09 0.09 0.10 0.06 0.03 0.02 0.01 0.01 0.00 0.00 0.00 0.00 0.01 0.01 0.00 0.00 0.00 0.00 0.00 0.00 0.00 0.00 0.00 0.00
0.22 0.18 0.11 0.13 0.13 0.06 0.06 0.07 0.07 0.15 0.36 0.31 0.24 0.16 0.17 0.19 0.66 0.45 0.23 0.22 0.17 0.16 0.10 0.04 0.02 0.03 0.04 0.02 0.00 0.00 0.00 0.00 0.00 0.00 0.00 0.00 0.00 0.00 0.00 0.00 0.00 0.00 0.00 0.00
0.18 0.17 0.22 0.28 0.14 0.05 0.08 0.15 0.13 0.13 0.24 0.29 0.17 0.18 0.21 0.20 0.61 0.80 0.36 0.22 0.27 0.15 0.10 0.06 0.06 0.03 0.03 0.01 0.00 0.00 0.00 0.00 0.00 0.00 0.00 0.00 0.00 0.00 0.00 0.00 0.00 0.00 0.00 0.00
0.14 0.20 0.32 0.20 0.05 0.10 0.38 0.45 0.38 0.41 0.25 0.17 0.20 0.15 0.12 0.15 0.18 0.49 0.83 0.50 0.17 0.11 0.14 0.23 0.17 0.08 0.08 0.02 0.00 0.00 0.00 0.00 0.00 0.00 0.00 0.01 0.01 0.01 0.01 0.01 0.01 0.02 0.02 0.03
0.10 0.24 0.27 0.10 0.13 0.18 0.31 0.38 0.42 0.34 0.28 0.08 0.07 0.07 0.15 0.08 0.28 0.39 0.36 0.57 0.76 0.34 0.15 0.21 0.25 0.19 0.08 0.04 0.03 0.04 0.05 0.05 0.04 0.03 0.01 0.01 0.01 0.02 0.02 0.03 0.05 0.07 0.10 0.12
0.27 0.36 0.31 0.19 0.11 0.08 0.08 0.23 0.31 0.24 0.14 0.11 0.09 0.07 0.10 0.09 0.33 0.53 0.41 0.26 0.36 0.63 0.39 0.25 0.17 0.11 0.10 0.16 0.18 0.16 0.14 0.12 0.10 0.09 0.07 0.06 0.06 0.06 0.06 0.07 0.09 0.13 0.18 0.25
0.64 0.31 0.20 0.07 0.04 0.05 0.12 0.16 0.16 0.27 0.37 0.27 0.16 0.11 0.06 0.07 0.21 0.30 0.35 0.34 0.20 0.25 0.42 0.50 0.33 0.20 0.16 0.16 0.15 0.14 0.13 0.12 0.10 0.07 0.05 0.04 0.06 0.10 0.13 0.19 0.29 0.33 0.38 0.41
0.57 0.31 0.14 0.18 0.18 0.17 0.15 0.12 0.12 0.25 0.34 0.30 0.22 0.15 0.14 0.12 0.20 0.20 0.13 0.19 0.16 0.18 0.21 0.21 0.21 0.28 0.26 0.25 0.28 0.30 0.35 0.38 0.38 0.38 0.35 0.36 0.36 0.37 0.39 0.35 0.34 0.28 0.27 0.29
0.44 0.20 0.23 0.24 0.28 0.28 0.27 0.18 0.16 0.24 0.52 0.45 0.36 0.33 0.27 0.18 0.20 0.13 0.09 0.09 0.09 0.10 0.14 0.15 0.16 0.19 0.18 0.18 0.20 0.21 0.26 0.31 0.34 0.36 0.34 0.34 0.36 0.33 0.34 0.30 0.24 0.17 0.16 0.14
0.07 0.24 0.37 0.33 0.40 0.38 0.32 0.29 0.31 0.34 0.47 0.45 0.31 0.27 0.23 0.21 0.08 0.04 0.07 0.05 0.07 0.11 0.15 0.18 0.22 0.21 0.21 0.24 0.27 0.31 0.33 0.29 0.24 0.22 0.20 0.19 0.19 0.14 0.13 0.13 0.11 0.10 0.07 0.07
0.15 0.38 0.50 0.46 0.38 0.37 0.37 0.38 0.38 0.37 0.32 0.22 0.11 0.06 0.10 0.10 0.05 0.06 0.07 0.11 0.17 0.22 0.23 0.27 0.28 0.27 0.27 0.29 0.32 0.34 0.27 0.18 0.15 0.15 0.15 0.12 0.09 0.05 0.03 0.03 0.04 0.03 0.03 0.03

GFSNW_prec_precacc12_057.txt.gz
Total_Precipitation_Accumulation
0.07 0.08 0.09 0.11 0.12 0.13 0.29 0.40 0.29 0.07 0.13 0.29 0.19 0.05 0.00 0.00 0.00 0.00 0.00 0.00 0.00 0.00 0.00 0.00 0.01 0.01 0.00 0.00 0.00 0.00 0.00 0.00 0.00 0.00 0.00 0.00 0.00 0.00 0.00 0.01 0.00 0.01 0.01 0.00
0.11 0.14 0.17 0.16 0.16 0.25 0.46 0.64 0.29 0.25 0.16 0.20 0.09 0.01 0.00 0.00 0.00 0.00 0.00 0.00 0.00 0.00 0.00 0.00 0.00 0.00 0.00 0.00 0.00 0.00 0.00 0.00 0.00 0.00 0.00 0.00 0.00 0.00 0.00 0.00 0.00 0.01 0.03 0.00
0.10 0.10 0.18 0.26 0.28 0.35 0.53 0.76 0.59 0.50 0.35 0.04 0.01 0.00 0.00 0.00 0.00 0.00 0.00 0.00 0.00 0.00 0.02 0.00 0.00 0.00 0.00 0.00 0.00 0.00 0.00 0.00 0.00 0.00 0.00 0.00 0.00 0.00 0.00 0.00 0.00 0.00 0.00 0.00
0.10 0.16 0.15 0.24 0.44 0.56 0.87 1.31 0.55 0.26 0.26 0.08 0.00 0.00 0.00 0.00 0.00 0.00 0.00 0.01 0.01 0.00 0.02 0.02 0.02 0.02 0.02 0.01 0.00 0.00 0.00 0.00 0.00 0.00 0.00 0.00 0.00 0.00 0.00 0.00 0.00 0.00 0.00 0.00
0.05 0.10 0.25 0.25 0.41 0.79 1.44 1.50 0.32 0.04 0.01 0.01 0.01 0.02 0.01 0.00 0.00 0.00 0.00 0.01 0.00 0.00 0.00 0.01 0.03 0.08 0.07 0.09 0.01 0.00 0.00 0.00 0.00 0.00 0.00 0.00 0.00 0.00 0.00 0.00 0.00 0.00 0.00 0.00
0.07 0.08 0.22 0.34 0.35 0.85 2.26 1.57 0.23 0.06 0.04 0.05 0.05 0.02 0.00 0.00 0.00 0.00 0.00 0.00 0.00 0.01 0.01 0.06 0.09 0.07 0.07 0.10 0.06 0.01 0.00 0.00 0.00 0.00 0.00 0.00 0.00 0.00 0.00 0.00 0.00 0.00 0.00 0.00
0.11 0.12 0.20 0.35 0.43 0.58 1.37 1.21 0.22 0.24 0.28 0.12 0.03 0.00 0.00 0.00 0.00 0.00 0.00 0.00 0.00 0.00 0.00 0.06 0.22 0.21 0.09 0.10 0.09 0.12 0.04 0.00 0.00 0.00 0.00 0.01 0.00 0.00 0.00 0.00 0.00 0.00 0.00 0.00
0.21 0.16 0.26 0.32 0.45 0.39 0.43 0.47 0.25 0.18 0.26 0.07 0.01 0.00 0.00 0.01 0.01 0.00 0.00 0.00 0.00 0.00 0.00 0.09 0.17 0.21 0.21 0.11 0.16 0.16 0.05 0.03 0.05 0.02 0.01 0.00 0.00 0.00 0.00 0.00 0.00 0.00 0.00 0.00
0.23 0.29 0.30 0.33 0.37 0.42 0.33 0.21 0.20 0.31 0.22 0.13 0.02 0.02 0.02 0.02 0.04 0.04 0.00 0.00 0.00 0.00 0.01 0.10 0.09 0.10 0.11 0.12 0.14 0.17 0.23 0.08 0.09 0.07 0.01 0.00 0.00 0.00 0.00 0.00 0.00 0.00 0.00 0.00
0.18 0.32 0.36 0.33 0.31 0.47 0.34 0.16 0.06 0.31 0.47 0.11 0.08 0.10 0.05 0.02 0.04 0.06 0.01 0.02 0.06 0.03 0.03 0.04 0.05 0.04 0.01 0.01 0.04 0.09 0.19 0.13 0.04 0.06 0.09 0.00 0.00 0.00 0.00 0.00 0.00 0.00 0.00 0.00
0.18 0.28 0.36 0.36 0.34 0.48 0.49 0.18 0.07 0.20 0.45 0.23 0.17 0.19 0.20 0.05 0.07 0.08 0.02 0.14 0.17 0.17 0.08 0.02 0.00 0.01 0.00 0.00 0.00 0.02 0.06 0.09 0.07 0.06 0.07 0.01 0.00 0.00 0.00 0.00 0.00 0.00 0.00 0.00
0.21 0.26 0.30 0.37 0.35 0.47 0.52 0.30 0.14 0.17 0.31 0.31 0.24 0.15 0.21 0.09 0.01 0.03 0.03 0.06 0.08 0.10 0.14 0.03 0.01 0.02 0.01 0.00 0.00 0.00 0.02 0.04 0.07 0.04 0.01 0.01 0.01 0.00 0.00 0.00 0.00 0.00 0.00 0.00
0.24 0.25 0.26 0.39 0.46 0.49 0.53 0.36 0.17 0.29 0.41 0.23 0.17 0.26 0.12 0.12 0.01 0.02 0.15 0.06 0.02 0.04 0.03 0.06 0.04 0.02 0.00 0.00 0.00 0.00 0.00 0.00 0.00 0.03 0.01 0.01 0.02 0.04 0.01 0.00 0.00 0.00 0.00 0.00
0.27 0.26 0.33 0.60 0.63 0.59 0.43 0.25 0.12 0.17 0.17 0.31 0.15 0.14 0.08 0.09 0.04 0.02 0.11 0.07 0.03 0.06 0.08 0.08 0.14 0.06 0.00 0.00 0.00 0.00 0.00 0.00 0.01 0.02 0.00 0.00 0.00 0.04 0.07 0.05 0.02 0.00 0.00 0.00
0.30 0.33 0.50 0.82 0.73 0.46 0.29 0.16 0.14 0.08 0.07 0.12 0.08 0.05 0.12 0.18 0.13 0.09 0.09 0.13 0.15 0.23 0.44 0.19 0.05 0.02 0.02 0.00 0.01 0.00 0.00 0.00 0.00 0.01 0.01 0.01 0.00 0.00 0.00 0.01 0.02 0.01 0.00 0.00
0.30 0.43 0.68 0.64 0.40 0.25 0.29 0.47 0.31 0.07 0.04 0.06 0.05 0.03 0.02 0.13 0.15 0.12 0.11 0.11 0.22 0.20 0.32 0.34 0.09 0.01 0.02 0.01 0.00 0.00 0.00 0.00 0.00 0.00 0.00 0.00 0.00 0.00 0.00 0.00 0.00 0.00 0.00 0.00
0.38 0.39 0.35 0.28 0.13 0.09 0.11 0.18 0.09 0.02 0.02 0.06 0.07 0.04 0.04 0.06 0.25 0.19 0.13 0.12 0.20 0.23 0.31 0.28 0.20 0.06 0.06 0.02 0.00 0.00 0.00 0.00 0.00 0.00 0.00 0.00 0.00 0.00 0.00 0.00 0.00 0.00 0.00 0.00
0.21 0.22 0.23 0.17 0.08 0.05 0.04 0.02 0.00 0.00 0.02 0.03 0.07 0.07 0.16 0.14 0.29 0.31 0.16 0.22 0.25 0.29 0.36 0.22 0.14 0.13 0.16 0.07 0.00 0.00 0.00 0.00 0.00 0.00 0.00 0.00 0.00 0.00 0.00 0.00 0.00 0.00 0.00 0.00
0.13 0.10 0.07 0.10 0.11 0.09 0.08 0.04 0.02 0.06 0.12 0.10 0.04 0.11 0.29 0.25 0.33 0.34 0.23 0.21 0.31 0.28 0.24 0.22 0.20 0.16 0.17 0.04 0.00 0.00 0.00 0.00 0.00 0.00 0.00 0.00 0.00 0.00 0.00 0.00 0.00 0.00 0.00 0.00
0.03 0.04 0.06 0.12 0.08 0.07 0.16 0.18 0.14 0.16 0.20 0.12 0.08 0.09 0.22 0.54 0.46 0.36 0.28 0.32 0.22 0.16 0.15 0.25 0.38 0.30 0.06 0.01 0.00 0.00 0.00 0.00 0.00 0.00 0.00 0.00 0.00 0.00 0.00 0.00 0.00 0.00 0.00 0.00
0.02 0.06 0.08 0.05 0.04 0.13 0.20 0.16 0.08 0.08 0.14 0.04 0.04 0.04 0.18 0.39 0.55 0.37 0.26 0.33 0.42 0.17 0.10 0.21 0.29 0.20 0.07 0.03 0.01 0.00 0.00 0.00 0.00 0.00 0.00 0.00 0.00 0.01 0.01 0.01 0.01 0.01 0.01 0.01
0.06 0.09 0.04 0.06 0.10 0.14 0.09 0.05 0.04 0.03 0.13 0.10 0.08 0.11 0.18 0.32 0.66 0.54 0.30 0.23 0.29 0.48 0.27 0.33 0.35 0.16 0.06 0.03 0.02 0.02 0.01 0.00 0.00 0.01 0.00 0.01 0.04 0.03 0.03 0.02 0.02 0.04 0.07 0.13
0.16 0.16 0.13 0.12 0.06 0.06 0.08 0.08 0.11 0.19 0.36 0.26 0.15 0.15 0.40 0.33 0.56 0.82 0.44 0.26 0.21 0.45 0.50 0.44 0.32 0.18 0.12 0.14 0.14 0.13 0.11 0.10 0.08 0.06 0.05 0.03 0.03 0.04 0.05 0.09 0.17 0.24 0.32 0.42
0.18 0.07 0.03 0.04 0.04 0.07 0.11 0.11 0.14 0.18 0.29 0.27 0.20 0.16 0.16 0.20 0.51 0.92 0.59 0.44 0.21 0.32 0.34 0.23 0.18 0.25 0.26 0.29 0.32 0.35 0.41 0.42 0.40 0.38 0.35 0.37 0.38 0.40 0.43 0.43 0.46 0.41 0.45 0.53
0.04 0.00 0.08 0.07 0.15 0.09 0.09 0.09 0.12 0.22 0.47 0.42 0.38 0.32 0.27 0.21 0.35 0.42 0.35 0.19 0.12 0.10 0.16 0.22 0.26 0.30 0.26 0.27 0.29 0.28 0.29 0.30 0.32 0.35 0.35 0.38 0.41 0.38 0.44 0.47 0.42 0.32 0.31 0.30
0.00 0.07 0.15 0.11 0.16 0.15 0.16 0.19 0.24 0.30 0.48 0.54 0.44 0.32 0.26 0.17 0.13 0.12 0.15 0.06 0.09 0.14 0.19 0.24 0.30 0.32 0.31 0.34 0.33 0.34 0.34 0.30 0.26 0.25 0.24 0.24 0.25 0.22 0.24 0.25 0.23 0.23 0.18 0.19
0.08 0.18 0.25 0.28 0.26 0.29 0.37 0.40 0.38 0.39 0.39 0.33 0.18 0.12 0.17 0.15 0.03 0.07 0.09 0.15 0.17 0.19 0.21 0.26 0.30 0.30 0.32 0.32 0.30 0.30 0.24 0.18 0.18 0.18 0.17 0.17 0.16 0.11 0.06 0.09 0.14 0.11 0.11 0.10

GFSNW_prec_precacc12_060.txt.gz
Total_Precipitation_Accumulation
0.07 0.06 0.07 0.10 0.13 0.17 0.44 0.60 0.35 0.06 0.11 0.25 0.13 0.02 0.00 0.00 0.00 0.00 0.00 0.00 0.00 0.00 0.00 0.00 0.01 0.01 0.00 0.00 0.00 0.00 0.00 0.00 0.00 0.00 0.00 0.00 0.00 0.00 0.00 0.01 0.00 0.01 0.01 0.00
0.10 0.12 0.13 0.15 0.17 0.31 0.68 0.87 0.38 0.21 0.11 0.17 0.06 0.01 0.00 0.00 0.00 0.00 0.00 0.00 0.00 0.00 0.00 0.00 0.00 0.00 0.00 0.00 0.00 0.00 0.00 0.00 0.00 0.00 0.00 0.00 0.00 0.00 0.00 0.00 0.00 0.01 0.03 0.00
0.06 0.07 0.13 0.22 0.27 0.40 0.79 1.09 0.68 0.56 0.35 0.04 0.01 0.00 0.00 0.00 0.00 0.00 0.00 0.00 0.00 0.00 0.02 0.00 0.00 0.00 0.00 0.00 0.00 0.00 0.00 0.00 0.00 0.00 0.00 0.00 0.00 0.00 0.00 0.00 0.00 0.00 0.00 0.00
0.07 0.12 0.08 0.15 0.36 0.55 1.18 1.72 0.63 0.26 0.34 0.10 0.00 0.00 0.00 0.00 0.00 0.00 0.00 0.01 0.01 0.00 0.02 0.02 0.02 0.02 0.02 0.02 0.00 0.00 0.02 0.01 0.00 0.00 0.00 0.00 0.00 0.00 0.00 0.00 0.00 0.00 0.00 0.00
0.06 0.09 0.16 0.12 0.28 0.74 1.83 1.91 0.41 0.04 0.01 0.01 0.01 0.01 0.00 0.00 0.00 0.00 0.00 0.01 0.00 0.00 0.00 0.01 0.03 0.08 0.07 0.10 0.04 0.02 0.02 0.01 0.00 0.00 0.00 0.00 0.00 0.00 0.00 0.00 0.00 0.00 0.00 0.00
0.08 0.07 0.10 0.17 0.18 0.75 2.50 1.99 0.29 0.05 0.04 0.05 0.07 0.02 0.00 0.00 0.00 0.00 0.00 0.00 0.00 0.01 0.01 0.06 0.10 0.07 0.07 0.10 0.11 0.11 0.10 0.05 0.01 0.00 0.00 0.00 0.00 0.00 0.00 0.00 0.00 0.00 0.00 0.00
0.10 0.09 0.08 0.16 0.25 0.47 1.42 1.47 0.32 0.27 0.32 0.10 0.03 0.00 0.00 0.00 0.00 0.00 0.00 0.00 0.00 0.00 0.00 0.07 0.24 0.21 0.09 0.10 0.10 0.16 0.19 0.10 0.06 0.02 0.01 0.03 0.02 0.00 0.00 0.00 0.00 0.00 0.00 0.00
0.16 0.10 0.09 0.10 0.26 0.32 0.51 0.63 0.43 0.30 0.30 0.07 0.01 0.00 0.00 0.00 0.00 0.00 0.00 0.00 0.00 0.00 0.00 0.09 0.17 0.21 0.21 0.11 0.16 0.16 0.16 0.22 0.24 0.08 0.02 0.01 0.00 0.00 0.00 0.00 0.00 0.00 0.00 0.00
0.18 0.19 0.13 0.12 0.18 0.39 0.43 0.33 0.35 0.57 0.40 0.20 0.01 0.01 0.01 0.02 0.03 0.03 0.00 0.00 0.00 0.00 0.01 0.10 0.09 0.10 0.10 0.12 0.14 0.17 0.31 0.29 0.29 0.19 0.07 0.01 0.00 0.00 0.00 0.00 0.00 0.00 0.00 0.00
0.16 0.23 0.25 0.17 0.17 0.43 0.38 0.27 0.17 0.49 0.79 0.18 0.02 0.06 0.03 0.02 0.03 0.06 0.01 0.02 0.06 0.03 0.03 0.04 0.05 0.04 0.01 0.01 0.04 0.09 0.21 0.35 0.31 0.25 0.20 0.03 0.00 0.00 0.00 0.00 0.00 0.00 0.00 0.00
0.15 0.21 0.26 0.22 0.25 0.43 0.51 0.19 0.10 0.23 0.60 0.29 0.13 0.13 0.13 0.03 0.05 0.07 0.02 0.14 0.17 0.18 0.08 0.02 0.00 0.01 0.01 0.00 0.00 0.02 0.06 0.15 0.20 0.27 0.28 0.08 0.00 0.00 0.00 0.00 0.00 0.00 0.00 0.00
0.13 0.18 0.18 0.25 0.29 0.50 0.58 0.37 0.16 0.18 0.38 0.38 0.23 0.16 0.18 0.10 0.03 0.03 0.02 0.07 0.08 0.10 0.15 0.03 0.01 0.02 0.01 0.00 0.00 0.00 0.02 0.04 0.07 0.07 0.06 0.03 0.02 0.02 0.01 0.00 0.00 0.00 0.00 0.00
0.12 0.16 0.15 0.30 0.39 0.49 0.67 0.52 0.27 0.31 0.43 0.30 0.30 0.23 0.10 0.10 0.07 0.06 0.16 0.06 0.02 0.06 0.06 0.07 0.06 0.03 0.00 0.01 0.00 0.00 0.00 0.00 0.01 0.02 0.01 0.01 0.03 0.04 0.01 0.00 0.00 0.00 0.00 0.00
0.14 0.15 0.21 0.46 0.50 0.48 0.64 0.47 0.22 0.18 0.21 0.36 0.18 0.11 0.06 0.04 0.04 0.06 0.14 0.09 0.05 0.11 0.13 0.11 0.15 0.06 0.01 0.00 0.00 0.00 0.00 0.00 0.01 0.02 0.00 0.00 0.00 0.04 0.07 0.05 0.02 0.00 0.00 0.00
0.16 0.19 0.41 0.70 0.59 0.45 0.55 0.32 0.16 0.10 0.10 0.12 0.10 0.04 0.02 0.01 0.06 0.05 0.10 0.15 0.19 0.30 0.50 0.23 0.06 0.02 0.02 0.02 0.03 0.00 0.00 0.01 0.02 0.01 0.01 0.00 0.01 0.00 0.00 0.01 0.02 0.01 0.00 0.00
0.21 0.37 0.69 0.63 0.41 0.37 0.56 0.76 0.47 0.14 0.09 0.09 0.08 0.04 0.01 0.03 0.06 0.07 0.07 0.11 0.24 0.27 0.44 0.45 0.11 0.02 0.04 0.03 0.01 0.02 0.02 0.02 0.02 0.00 0.00 0.00 0.00 0.00 0.00 0.00 0.00 0.00 0.00 0.00
0.33 0.47 0.47 0.37 0.20 0.24 0.25 0.43 0.26 0.09 0.12 0.07 0.12 0.05 0.04 0.05 0.15 0.11 0.09 0.12 0.20 0.26 0.43 0.43 0.27 0.07 0.12 0.05 0.01 0.01 0.03 0.02 0.02 0.01 0.00 0.00 0.00 0.00 0.00 0.00 0.00 0.00 0.00 0.00
0.34 0.48 0.49 0.31 0.20 0.19 0.11 0.08 0.01 0.03 0.07 0.02 0.05 0.07 0.16 0.11 0.23 0.24 0.14 0.18 0.23 0.25 0.35 0.27 0.22 0.20 0.24 0.21 0.01 0.00 0.00 0.01 0.01 0.00 0.00 0.00 0.00 0.00 0.00 0.00 0.00 0.00 0.00 0.00
0.33 0.27 0.15 0.18 0.24 0.17 0.17 0.05 0.03 0.06 0.09 0.05 0.01 0.09 0.28 0.23 0.31 0.31 0.18 0.19 0.23 0.25 0.25 0.23 0.23 0.28 0.47 0.26 0.12 0.02 0.00 0.00 0.00 0.00 0.00 0.00 0.00 0.00 0.00 0.00 0.00 0.00 0.00 0.00
0.03 0.03 0.06 0.21 0.15 0.06 0.02 0.04 0.07 0.08 0.12 0.05 0.01 0.02 0.18 0.48 0.44 0.35 0.28 0.21 0.17 0.16 0.15 0.27 0.42 0.39 0.15 0.04 0.03 0.02 0.00 0.00 0.00 0.00 0.00 0.00 0.00 0.00 0.00 0.00 0.00 0.00 0.00 0.00
0.02 0.02 0.05 0.08 0.03 0.08 0.12 0.12 0.06 0.04 0.03 0.01 0.01 0.00 0.07 0.34 0.52 0.37 0.27 0.20 0.16 0.09 0.08 0.21 0.39 0.38 0.23 0.07 0.02 0.01 0.00 0.00 0.00 0.00 0.00 0.00 0.01 0.00 0.00 0.00 0.00 0.00 0.00 0.00
0.01 0.01 0.01 0.02 0.07 0.13 0.09 0.05 0.03 0.02 0.09 0.04 0.03 0.07 0.09 0.28 0.64 0.55 0.32 0.24 0.18 0.28 0.21 0.30 0.35 0.20 0.09 0.06 0.04 0.03 0.02 0.01 0.00 0.00 0.00 0.00 0.01 0.00 0.00 0.00 0.01 0.01 0.03 0.05
0.04 0.04 0.06 0.09 0.06 0.06 0.09 0.08 0.08 0.10 0.23 0.20 0.08 0.11 0.40 0.37 0.65 0.95 0.48 0.27 0.22 0.46 0.44 0.31 0.25 0.14 0.08 0.07 0.06 0.06 0.06 0.06 0.05 0.05 0.06 0.05 0.05 0.06 0.06 0.06 0.10 0.11 0.17 0.28
0.10 0.04 0.02 0.04 0.04 0.07 0.11 0.10 0.14 0.15 0.20 0.24 0.14 0.09 0.14 0.28 0.71 1.14 0.67 0.47 0.23 0.31 0.32 0.19 0.16 0.18 0.18 0.14 0.14 0.16 0.23 0.25 0.27 0.31 0.31 0.32 0.34 0.36 0.35 0.35 0.39 0.35 0.41 0.50
0.01 0.00 0.04 0.04 0.13 0.06 0.04 0.04 0.08 0.14 0.23 0.29 0.28 0.28 0.27 0.28 0.42 0.55 0.44 0.23 0.12 0.10 0.17 0.22 0.26 0.25 0.21 0.22 0.23 0.24 0.25 0.25 0.26 0.28 0.27 0.32 0.35 0.32 0.38 0.41 0.36 0.28 0.29 0.30
0.00 0.03 0.05 0.03 0.04 0.03 0.02 0.02 0.05 0.11 0.21 0.34 0.39 0.30 0.25 0.18 0.18 0.19 0.23 0.12 0.13 0.17 0.20 0.27 0.30 0.31 0.31 0.34 0.34 0.34 0.33 0.29 0.27 0.27 0.25 0.24 0.23 0.21 0.24 0.25 0.24 0.24 0.19 0.21
0.03 0.07 0.11 0.09 0.09 0.14 0.24 0.23 0.22 0.28 0.29 0.29 0.18 0.12 0.16 0.14 0.04 0.08 0.10 0.18 0.23 0.22 0.22 0.26 0.30 0.33 0.36 0.34 0.30 0.29 0.24 0.21 0.20 0.19 0.17 0.19 0.18 0.12 0.07 0.11 0.16 0.12 0.11 0.11

GFSNW_prec_precacc12_063.txt.gz
Total_Precipitation_Accumulation
0.04 0.05 0.06 0.08 0.13 0.17 0.53 0.88 0.52 0.06 0.05 0.20 0.10 0.01 0.00 0.00 0.00 0.00 0.00 0.00 0.00 0.00 0.00 0.00 0.01 0.01 0.00 0.00 0.00 0.00 0.00 0.00 0.00 0.00 0.00 0.00 0.00 0.00 0.00 0.00 0.00 0.01 0.01 0.00
0.07 0.10 0.12 0.13 0.16 0.31 0.79 1.18 0.54 0.21 0.07 0.14 0.04 0.01 0.00 0.00 0.00 0.00 0.00 0.00 0.00 0.00 0.00 0.00 0.00 0.00 0.00 0.00 0.00 0.00 0.00 0.00 0.00 0.00 0.00 0.00 0.00 0.00 0.00 0.00 0.00 0.01 0.02 0.00
0.03 0.04 0.11 0.20 0.24 0.39 1.01 1.46 0.80 0.63 0.34 0.03 0.01 0.00 0.00 0.00 0.00 0.00 0.00 0.00 0.00 0.00 0.02 0.00 0.00 0.00 0.00 0.00 0.00 0.00 0.00 0.00 0.00 0.00 0.00 0.00 0.00 0.00 0.00 0.00 0.00 0.00 0.00 0.00
0.04 0.04 0.05 0.10 0.29 0.50 1.43 2.10 0.73 0.21 0.35 0.11 0.00 0.00 0.00 0.00 0.00 0.00 0.00 0.00 0.01 0.00 0.02 0.01 0.02 0.02 0.02 0.02 0.01 0.00 0.04 0.02 0.00 0.00 0.00 0.00 0.00 0.00 0.00 0.00 0.00 0.00 0.00 0.00
0.07 0.06 0.06 0.08 0.20 0.69 2.03 2.16 0.45 0.03 0.01 0.02 0.02 0.01 0.00 0.00 0.00 0.00 0.00 0.00 0.00 0.00 0.00 0.01 0.03 0.08 0.07 0.10 0.05 0.02 0.05 0.05 0.01 0.00 0.00 0.00 0.00 0.00 0.00 0.00 0.00 0.00 0.00 0.00
0.09 0.10 0.08 0.08 0.15 0.77 2.42 2.03 0.33 0.04 0.04 0.04 0.07 0.02 0.00 0.00 0.00 0.00 0.00 0.00 0.00 0.00 0.01 0.05 0.09 0.07 0.07 0.10 0.11 0.12 0.10 0.12 0.05 0.02 0.00 0.00 0.01 0.00 0.00 0.00 0.00 0.00 0.00 0.00
0.10 0.10 0.10 0.12 0.21 0.55 1.36 1.44 0.35 0.29 0.34 0.07 0.02 0.00 0.00 0.00 0.00 0.00 0.00 0.00 0.00 0.00 0.00 0.06 0.24 0.21 0.09 0.10 0.10 0.17 0.19 0.13 0.17 0.09 0.02 0.08 0.03 0.00 0.00 0.00 0.00 0.00 0.00 0.00
0.09 0.09 0.10 0.13 0.23 0.38 0.64 0.80 0.46 0.30 0.30 0.07 0.01 0.00 0.00 0.00 0.00 0.00 0.00 0.00 0.00 0.00 0.00 0.09 0.17 0.20 0.20 0.10 0.16 0.17 0.16 0.22 0.27 0.12 0.07 0.05 0.00 0.00 0.00 0.00 0.00 0.00 0.00 0.00
0.06 0.08 0.08 0.11 0.22 0.41 0.65 0.57 0.44 0.63 0.45 0.21 0.01 0.01 0.01 0.02 0.01 0.01 0.00 0.00 0.00 0.00 0.01 0.10 0.09 0.10 0.10 0.11 0.11 0.17 0.31 0.30 0.28 0.22 0.11 0.04 0.00 0.00 0.00 0.00 0.00 0.00 0.00 0.00
0.06 0.09 0.16 0.13 0.12 0.39 0.59 0.57 0.26 0.57 0.93 0.20 0.02 0.05 0.02 0.01 0.01 0.02 0.00 0.01 0.03 0.02 0.03 0.04 0.04 0.04 0.01 0.01 0.02 0.07 0.22 0.36 0.31 0.25 0.22 0.04 0.00 0.00 0.00 0.02 0.01 0.00 0.00 0.00
0.06 0.08 0.21 0.19 0.17 0.25 0.54 0.39 0.19 0.28 0.68 0.28 0.09 0.11 0.10 0.02 0.02 0.03 0.01 0.08 0.13 0.16 0.08 0.02 0.00 0.00 0.01 0.00 0.00 0.01 0.05 0.14 0.19 0.26 0.26 0.12 0.04 0.07 0.06 0.02 0.00 0.00 0.00 0.00
0.06 0.11 0.16 0.22 0.18 0.28 0.53 0.39 0.19 0.20 0.46 0.36 0.23 0.15 0.16 0.09 0.02 0.03 0.01 0.04 0.07 0.10 0.15 0.03 0.01 0.00 0.00 0.00 0.00 0.00 0.02 0.02 0.04 0.06 0.05 0.04 0.04 0.09 0.09 0.04 0.02 0.00 0.00 0.00
0.10 0.13 0.14 0.22 0.20 0.33 0.65 0.50 0.27 0.33 0.50 0.32 0.30 0.25 0.10 0.09 0.08 0.07 0.10 0.04 0.02 0.06 0.06 0.08 0.06 0.03 0.00 0.00 0.00 0.00 0.00 0.00 0.01 0.02 0.01 0.01 0.03 0.04 0.02 0.01 0.01 0.01 0.00 0.01
0.15 0.13 0.15 0.29 0.28 0.40 0.72 0.61 0.26 0.18 0.22 0.37 0.17 0.11 0.07 0.04 0.03 0.08 0.14 0.09 0.07 0.13 0.15 0.13 0.17 0.08 0.02 0.00 0.00 0.00 0.00 0.00 0.01 0.02 0.00 0.00 0.00 0.04 0.07 0.05 0.02 0.00 0.01 0.00
0.13 0.12 0.24 0.43 0.39 0.42 0.63 0.56 0.22 0.10 0.09 0.11 0.10 0.04 0.02 0.02 0.03 0.03 0.10 0.15 0.21 0.34 0.54 0.28 0.08 0.02 0.04 0.05 0.04 0.00 0.00 0.01 0.03 0.01 0.02 0.02 0.01 0.00 0.00 0.01 0.02 0.01 0.00 0.00
0.12 0.18 0.43 0.40 0.39 0.44 0.79 1.12 0.66 0.15 0.12 0.13 0.09 0.04 0.02 0.02 0.02 0.03 0.04 0.09 0.22 0.28 0.47 0.45 0.13 0.06 0.08 0.03 0.01 0.02 0.03 0.03 0.03 0.01 0.01 0.01 0.00 0.00 0.00 0.00 0.01 0.01 0.00 0.00
0.21 0.35 0.40 0.38 0.27 0.38 0.41 0.60 0.38 0.10 0.14 0.19 0.18 0.06 0.08 0.09 0.06 0.04 0.05 0.09 0.19 0.24 0.42 0.45 0.29 0.09 0.21 0.14 0.02 0.01 0.03 0.04 0.04 0.03 0.04 0.04 0.02 0.02 0.01 0.00 0.01 0.01 0.00 0.00
0.38 0.53 0.52 0.34 0.29 0.29 0.18 0.09 0.01 0.05 0.18 0.14 0.21 0.04 0.10 0.08 0.05 0.02 0.05 0.12 0.21 0.23 0.37 0.39 0.31 0.27 0.34 0.34 0.07 0.00 0.00 0.01 0.03 0.03 0.03 0.02 0.02 0.02 0.01 0.01 0.01 0.00 0.00 0.00
0.41 0.30 0.19 0.33 0.39 0.29 0.38 0.08 0.03 0.14 0.20 0.13 0.02 0.04 0.13 0.10 0.06 0.04 0.09 0.13 0.22 0.21 0.21 0.24 0.31 0.40 0.72 0.42 0.17 0.05 0.01 0.00 0.00 0.00 0.02 0.04 0.02 0.02 0.02 0.01 0.00 0.00 0.00 0.00
0.07 0.12 0.24 0.46 0.30 0.30 0.14 0.13 0.25 0.27 0.13 0.05 0.00 0.01 0.12 0.41 0.35 0.25 0.21 0.19 0.17 0.11 0.13 0.25 0.41 0.40 0.16 0.06 0.05 0.08 0.08 0.05 0.02 0.00 0.00 0.01 0.01 0.01 0.01 0.01 0.00 0.00 0.00 0.00
0.07 0.07 0.15 0.18 0.16 0.10 0.10 0.12 0.11 0.06 0.01 0.00 0.00 0.00 0.05 0.32 0.46 0.32 0.23 0.21 0.15 0.08 0.08 0.18 0.38 0.39 0.24 0.08 0.02 0.00 0.01 0.03 0.05 0.02 0.00 0.00 0.01 0.01 0.01 0.00 0.00 0.00 0.00 0.00
0.00 0.01 0.02 0.03 0.05 0.09 0.07 0.04 0.03 0.01 0.07 0.02 0.01 0.05 0.09 0.25 0.45 0.45 0.29 0.25 0.17 0.15 0.10 0.23 0.30 0.18 0.09 0.06 0.04 0.03 0.03 0.02 0.01 0.01 0.01 0.01 0.01 0.02 0.02 0.01 0.01 0.02 0.02 0.02
0.02 0.02 0.06 0.08 0.05 0.05 0.08 0.07 0.08 0.10 0.09 0.06 0.04 0.08 0.39 0.36 0.51 0.85 0.47 0.28 0.26 0.37 0.27 0.20 0.19 0.13 0.07 0.06 0.04 0.04 0.03 0.04 0.04 0.05 0.05 0.05 0.05 0.06 0.07 0.08 0.11 0.09 0.11 0.20
0.00 0.01 0.02 0.03 0.03 0.06 0.11 0.10 0.11 0.09 0.07 0.08 0.05 0.07 0.13 0.33 0.65 1.17 0.71 0.47 0.25 0.30 0.30 0.16 0.15 0.15 0.15 0.12 0.10 0.09 0.11 0.12 0.11 0.15 0.15 0.16 0.18 0.23 0.26 0.29 0.33 0.28 0.33 0.43
0.00 0.00 0.03 0.04 0.12 0.06 0.05 0.04 0.09 0.10 0.09 0.09 0.14 0.15 0.10 0.26 0.42 0.56 0.42 0.20 0.11 0.09 0.16 0.20 0.26 0.23 0.19 0.21 0.21 0.20 0.21 0.19 0.19 0.21 0.19 0.23 0.23 0.18 0.25 0.31 0.29 0.23 0.25 0.26
0.00 0.03 0.05 0.03 0.03 0.02 0.02 0.02 0.03 0.04 0.09 0.15 0.20 0.14 0.07 0.14 0.19 0.22 0.25 0.12 0.12 0.16 0.19 0.27 0.28 0.28 0.30 0.32 0.32 0.32 0.31 0.28 0.27 0.26 0.23 0.21 0.20 0.17 0.20 0.20 0.19 0.21 0.17 0.19
0.04 0.07 0.09 0.08 0.07 0.10 0.17 0.15 0.09 0.10 0.10 0.12 0.08 0.08 0.12 0.10 0.04 0.08 0.11 0.22 0.26 0.24 0.24 0.26 0.27 0.29 0.33 0.32 0.29 0.28 0.24 0.21 0.21 0.19 0.16 0.17 0.17 0.11 0.06 0.11 0.17 0.12 0.12 0.11

GFSNW_prec_precacc12_069.txt.gz
Total_Precipitation_Accumulation
0.02 0.02 0.02 0.04 0.08 0.16 0.48 0.91 0.65 0.14 0.02 0.28 0.21 0.05 0.00 0.00 0.00 0.00 0.00 0.00 0.00 0.00 0.00 0.00 0.00 0.00 0.00 0.00 0.00 0.00 0.00 0.00 0.00 0.00 0.00 0.00 0.00 0.00 0.00 0.00 0.00 0.00 0.00 0.00
0.02 0.02 0.03 0.06 0.10 0.29 0.68 1.07 0.62 0.38 0.05 0.14 0.09 0.04 0.01 0.00 0.00 0.00 0.00 0.00 0.00 0.00 0.00 0.00 0.00 0.00 0.00 0.00 0.00 0.00 0.00 0.00 0.00 0.00 0.00 0.00 0.00 0.00 0.00 0.00 0.00 0.00 0.00 0.00
0.03 0.03 0.05 0.09 0.13 0.28 0.87 1.41 0.74 0.82 0.66 0.10 0.01 0.02 0.02 0.00 0.00 0.00 0.00 0.00 0.00 0.00 0.00 0.00 0.00 0.00 0.00 0.00 0.00 0.00 0.01 0.01 0.02 0.04 0.00 0.00 0.00 0.00 0.00 0.00 0.00 0.00 0.00 0.00
0.03 0.04 0.06 0.10 0.14 0.26 1.17 1.76 0.73 0.29 0.45 0.21 0.02 0.00 0.00 0.00 0.00 0.00 0.00 0.00 0.00 0.00 0.00 0.00 0.00 0.00 0.00 0.00 0.01 0.01 0.04 0.02 0.00 0.00 0.00 0.00 0.00 0.00 0.00 0.00 0.00 0.00 0.00 0.00
0.06 0.07 0.08 0.10 0.15 0.40 1.52 1.70 0.34 0.13 0.11 0.03 0.06 0.04 0.04 0.00 0.00 0.00 0.00 0.00 0.00 0.00 0.00 0.00 0.00 0.00 0.00 0.01 0.04 0.03 0.05 0.05 0.01 0.00 0.00 0.00 0.00 0.00 0.00 0.00 0.00 0.00 0.00 0.00
0.10 0.10 0.10 0.11 0.16 0.58 1.62 1.20 0.21 0.13 0.11 0.03 0.15 0.10 0.02 0.00 0.00 0.00 0.00 0.00 0.00 0.00 0.00 0.00 0.00 0.00 0.00 0.00 0.05 0.11 0.10 0.12 0.05 0.02 0.00 0.01 0.01 0.00 0.00 0.00 0.00 0.00 0.00 0.00
0.14 0.14 0.14 0.15 0.18 0.52 0.92 0.66 0.22 0.22 0.28 0.09 0.05 0.03 0.01 0.00 0.00 0.00 0.00 0.00 0.00 0.00 0.00 0.01 0.02 0.01 0.00 0.00 0.00 0.06 0.16 0.13 0.17 0.09 0.01 0.08 0.03 0.00 0.00 0.00 0.00 0.00 0.00 0.00
0.16 0.16 0.16 0.18 0.22 0.35 0.58 0.53 0.39 0.25 0.16 0.08 0.08 0.03 0.01 0.00 0.00 0.00 0.00 0.00 0.00 0.00 0.00 0.03 0.01 0.00 0.00 0.00 0.00 0.01 0.12 0.20 0.25 0.12 0.06 0.05 0.00 0.00 0.00 0.00 0.00 0.00 0.00 0.00
0.13 0.14 0.16 0.16 0.23 0.36 0.63 0.60 0.42 0.55 0.41 0.16 0.03 0.04 0.02 0.01 0.02 0.03 0.00 0.00 0.02 0.00 0.01 0.04 0.05 0.01 0.01 0.00 0.00 0.01 0.10 0.25 0.25 0.18 0.12 0.04 0.00 0.00 0.00 0.00 0.00 0.00 0.00 0.00
0.10 0.13 0.16 0.18 0.20 0.35 0.64 0.77 0.39 0.55 0.79 0.20 0.03 0.04 0.04 0.01 0.01 0.05 0.01 0.02 0.04 0.02 0.04 0.04 0.03 0.01 0.01 0.00 0.00 0.01 0.04 0.27 0.32 0.26 0.17 0.03 0.00 0.00 0.01 0.03 0.02 0.00 0.00 0.00
0.05 0.08 0.16 0.20 0.24 0.30 0.58 0.72 0.31 0.30 0.58 0.30 0.07 0.04 0.03 0.02 0.02 0.03 0.02 0.12 0.09 0.06 0.06 0.02 0.01 0.00 0.00 0.00 0.00 0.00 0.01 0.07 0.15 0.24 0.24 0.11 0.04 0.08 0.07 0.02 0.01 0.00 0.00 0.00
0.06 0.05 0.09 0.15 0.21 0.32 0.53 0.75 0.37 0.21 0.48 0.37 0.12 0.08 0.04 0.04 0.02 0.01 0.03 0.03 0.00 0.00 0.01 0.00 0.00 0.00 0.00 0.00 0.00 0.00 0.01 0.00 0.00 0.02 0.05 0.02 0.03 0.09 0.09 0.04 0.03 0.01 0.00 0.00
0.09 0.10 0.09 0.12 0.17 0.27 0.63 0.67 0.35 0.40 0.63 0.35 0.30 0.15 0.04 0.05 0.08 0.06 0.02 0.00 0.01 0.03 0.02 0.02 0.02 0.01 0.00 0.00 0.00 0.00 0.00 0.00 0.00 0.00 0.00 0.00 0.00 0.00 0.01 0.00 0.01 0.01 0.01 0.00
0.11 0.15 0.17 0.14 0.14 0.24 0.63 0.68 0.37 0.21 0.25 0.23 0.13 0.08 0.06 0.02 0.04 0.08 0.06 0.05 0.05 0.09 0.12 0.07 0.03 0.01 0.01 0.00 0.00 0.00 0.00 0.00 0.00 0.00 0.00 0.00 0.00 0.00 0.00 0.00 0.01 0.00 0.01 0.00
0.10 0.14 0.20 0.21 0.16 0.31 0.61 0.63 0.32 0.11 0.10 0.15 0.06 0.03 0.01 0.01 0.01 0.03 0.07 0.10 0.13 0.17 0.19 0.18 0.03 0.00 0.02 0.05 0.07 0.02 0.01 0.02 0.04 0.00 0.01 0.01 0.00 0.00 0.00 0.00 0.00 0.00 0.00 0.00
0.14 0.13 0.21 0.22 0.20 0.54 1.09 1.38 0.81 0.18 0.16 0.14 0.08 0.03 0.02 0.02 0.01 0.03 0.05 0.15 0.22 0.30 0.33 0.21 0.06 0.05 0.08 0.03 0.01 0.02 0.03 0.04 0.03 0.01 0.01 0.01 0.01 0.00 0.00 0.01 0.02 0.02 0.02 0.01
0.16 0.30 0.27 0.23 0.33 0.74 0.65 0.59 0.38 0.13 0.16 0.22 0.19 0.06 0.09 0.09 0.06 0.05 0.05 0.11 0.28 0.35 0.45 0.39 0.17 0.08 0.25 0.23 0.17 0.06 0.04 0.04 0.04 0.03 0.04 0.04 0.03 0.02 0.02 0.02 0.02 0.02 0.01 0.01
0.39 0.52 0.42 0.36 0.49 0.53 0.34 0.10 0.01 0.06 0.21 0.22 0.40 0.06 0.15 0.09 0.08 0.10 0.09 0.15 0.22 0.16 0.18 0.26 0.22 0.19 0.34 0.40 0.12 0.05 0.02 0.02 0.03 0.03 0.04 0.02 0.02 0.02 0.02 0.02 0.02 0.01 0.01 0.01
0.64 0.48 0.40 0.56 0.53 0.53 0.54 0.09 0.04 0.11 0.16 0.15 0.26 0.12 0.22 0.10 0.11 0.08 0.16 0.08 0.15 0.11 0.13 0.07 0.17 0.34 0.66 0.47 0.21 0.08 0.03 0.02 0.01 0.01 0.04 0.07 0.09 0.10 0.10 0.09 0.08 0.09 0.07 0.02
0.29 0.28 0.44 0.69 0.42 0.39 0.27 0.31 0.41 0.39 0.18 0.07 0.08 0.13 0.14 0.10 0.12 0.05 0.15 0.12 0.08 0.08 0.09 0.12 0.17 0.19 0.17 0.06 0.05 0.11 0.16 0.15 0.10 0.07 0.06 0.07 0.09 0.10 0.15 0.16 0.17 0.15 0.13 0.09
0.10 0.13 0.41 0.70 0.45 0.21 0.28 0.38 0.33 0.30 0.18 0.04 0.04 0.07 0.02 0.08 0.14 0.02 0.06 0.22 0.06 0.05 0.11 0.16 0.19 0.24 0.21 0.06 0.01 0.00 0.02 0.04 0.08 0.10 0.10 0.09 0.09 0.09 0.10 0.09 0.07 0.04 0.03 0.03
0.01 0.10 0.37 0.28 0.10 0.18 0.16 0.12 0.11 0.10 0.07 0.02 0.02 0.02 0.01 0.05 0.14 0.05 0.06 0.27 0.20 0.10 0.15 0.11 0.10 0.12 0.08 0.05 0.03 0.02 0.03 0.02 0.03 0.03 0.05 0.07 0.08 0.09 0.10 0.09 0.09 0.08 0.06 0.05
0.00 0.01 0.01 0.00 0.02 0.02 0.01 0.02 0.04 0.08 0.08 0.04 0.02 0.03 0.05 0.09 0.10 0.18 0.12 0.10 0.26 0.17 0.12 0.11 0.09 0.07 0.04 0.03 0.02 0.03 0.03 0.04 0.05 0.08 0.09 0.09 0.10 0.11 0.11 0.12 0.15 0.12 0.11 0.18
0.00 0.00 0.00 0.00 0.00 0.03 0.05 0.04 0.04 0.07 0.07 0.07 0.04 0.05 0.09 0.25 0.31 0.47 0.32 0.19 0.10 0.09 0.10 0.05 0.10 0.08 0.07 0.05 0.05 0.04 0.07 0.08 0.08 0.12 0.12 0.12 0.11 0.13 0.15 0.17 0.21 0.14 0.18 0.26
0.00 0.00 0.02 0.03 0.08 0.05 0.06 0.06 0.06 0.06 0.07 0.07 0.08 0.10 0.08 0.21 0.28 0.24 0.17 0.10 0.06 0.04 0.07 0.09 0.14 0.11 0.09 0.11 0.11 0.12 0.13 0.14 0.15 0.17 0.14 0.17 0.16 0.12 0.17 0.21 0.19 0.15 0.17 0.18
0.00 0.02 0.03 0.02 0.02 0.03 0.03 0.04 0.04 0.05 0.07 0.04 0.05 0.04 0.03 0.15 0.17 0.18 0.18 0.11 0.08 0.10 0.11 0.18 0.16 0.14 0.18 0.21 0.23 0.24 0.25 0.24 0.24 0.22 0.20 0.18 0.17 0.14 0.16 0.16 0.14 0.14 0.11 0.12
0.04 0.06 0.08 0.06 0.06 0.08 0.10 0.08 0.05 0.05 0.03 0.01 0.01 0.02 0.05 0.08 0.09 0.12 0.15 0.24 0.26 0.22 0.21 0.20 0.20 0.21 0.26 0.26 0.24 0.25 0.23 0.21 0.20 0.19 0.18 0.17 0.16 0.12 0.08 0.10 0.15 0.10 0.08 0.07

GFSNW_prec_precacc12_072.txt.gz
Total_Precipitation_Accumulation
0.03 0.02 0.01 0.02 0.04 0.11 0.30 0.63 0.53 0.14 0.07 0.27 0.26 0.12 0.01 0.00 0.00 0.00 0.00 0.00 0.00 0.00 0.00 0.00 0.00 0.00 0.00 0.00 0.00 0.00 0.00 0.00 0.00 0.00 0.00 0.00 0.00 0.00 0.00 0.00 0.00 0.00 0.00 0.00
0.04 0.04 0.03 0.02 0.05 0.21 0.44 0.72 0.49 0.37 0.17 0.19 0.13 0.09 0.03 0.00 0.00 0.00 0.00 0.00 0.00 0.00 0.00 0.00 0.00 0.00 0.00 0.00 0.00 0.00 0.00 0.00 0.00 0.00 0.00 0.00 0.00 0.00 0.00 0.00 0.00 0.00 0.00 0.00
0.04 0.05 0.05 0.05 0.09 0.21 0.63 1.01 0.56 0.67 0.70 0.24 0.03 0.04 0.05 0.01 0.00 0.00 0.00 0.00 0.00 0.00 0.00 0.00 0.00 0.00 0.00 0.00 0.00 0.00 0.01 0.00 0.02 0.04 0.00 0.00 0.00 0.00 0.00 0.00 0.00 0.00 0.00 0.00
0.04 0.05 0.06 0.07 0.12 0.23 0.84 1.24 0.60 0.26 0.42 0.26 0.11 0.03 0.03 0.00 0.00 0.00 0.00 0.00 0.00 0.00 0.00 0.00 0.00 0.00 0.00 0.00 0.00 0.00 0.02 0.01 0.00 0.00 0.00 0.00 0.00 0.00 0.00 0.00 0.00 0.00 0.00 0.00
0.04 0.04 0.05 0.07 0.12 0.34 1.09 1.17 0.26 0.16 0.13 0.06 0.12 0.16 0.17 0.01 0.00 0.00 0.00 0.00 0.00 0.00 0.00 0.00 0.00 0.00 0.00 0.00 0.00 0.01 0.03 0.04 0.01 0.00 0.00 0.00 0.00 0.00 0.00 0.00 0.00 0.00 0.00 0.00
0.07 0.08 0.07 0.07 0.12 0.49 1.24 0.78 0.17 0.18 0.13 0.04 0.21 0.20 0.09 0.05 0.01 0.00 0.00 0.00 0.00 0.00 0.00 0.00 0.00 0.00 0.00 0.00 0.00 0.00 0.00 0.07 0.05 0.02 0.00 0.01 0.01 0.00 0.00 0.00 0.00 0.00 0.00 0.00
0.13 0.12 0.12 0.12 0.13 0.41 0.78 0.42 0.16 0.23 0.26 0.13 0.07 0.07 0.08 0.03 0.00 0.01 0.00 0.00 0.00 0.00 0.00 0.00 0.00 0.00 0.00 0.00 0.00 0.01 0.01 0.04 0.12 0.08 0.01 0.06 0.01 0.00 0.00 0.00 0.00 0.00 0.00 0.00
0.18 0.17 0.17 0.19 0.22 0.32 0.53 0.40 0.26 0.20 0.13 0.07 0.10 0.11 0.07 0.03 0.02 0.02 0.01 0.00 0.00 0.01 0.01 0.04 0.02 0.00 0.00 0.00 0.00 0.01 0.01 0.02 0.06 0.06 0.05 0.04 0.00 0.00 0.00 0.00 0.00 0.00 0.00 0.00
0.14 0.16 0.20 0.22 0.28 0.37 0.59 0.52 0.29 0.37 0.36 0.11 0.03 0.05 0.08 0.08 0.04 0.04 0.01 0.03 0.04 0.03 0.03 0.06 0.06 0.01 0.00 0.00 0.01 0.01 0.03 0.04 0.05 0.07 0.06 0.02 0.00 0.00 0.00 0.00 0.00 0.00 0.00 0.00
0.10 0.14 0.18 0.22 0.28 0.43 0.67 0.78 0.30 0.39 0.51 0.16 0.06 0.05 0.05 0.05 0.07 0.08 0.03 0.09 0.09 0.10 0.10 0.06 0.04 0.02 0.00 0.00 0.01 0.02 0.03 0.05 0.06 0.09 0.07 0.01 0.00 0.00 0.02 0.03 0.02 0.00 0.00 0.00
0.05 0.09 0.16 0.21 0.27 0.37 0.66 0.80 0.30 0.27 0.44 0.20 0.08 0.05 0.05 0.04 0.04 0.06 0.05 0.22 0.21 0.16 0.12 0.04 0.02 0.01 0.00 0.00 0.00 0.01 0.01 0.02 0.02 0.03 0.04 0.04 0.04 0.08 0.08 0.02 0.01 0.00 0.00 0.00
0.05 0.05 0.09 0.16 0.24 0.35 0.58 0.76 0.38 0.21 0.45 0.25 0.06 0.05 0.05 0.04 0.03 0.07 0.14 0.06 0.01 0.01 0.03 0.01 0.01 0.00 0.00 0.00 0.00 0.00 0.01 0.00 0.00 0.00 0.00 0.01 0.02 0.09 0.08 0.04 0.03 0.01 0.00 0.00
0.09 0.10 0.09 0.11 0.19 0.34 0.63 0.61 0.29 0.45 0.79 0.34 0.09 0.08 0.03 0.04 0.05 0.06 0.07 0.02 0.01 0.01 0.01 0.02 0.02 0.01 0.00 0.00 0.00 0.00 0.00 0.00 0.00 0.00 0.00 0.00 0.00 0.00 0.00 0.00 0.01 0.01 0.00 0.00
0.11 0.14 0.17 0.15 0.17 0.32 0.63 0.65 0.33 0.25 0.33 0.24 0.10 0.01 0.04 0.03 0.03 0.06 0.05 0.04 0.04 0.05 0.07 0.05 0.05 0.02 0.00 0.00 0.00 0.00 0.00 0.00 0.00 0.00 0.00 0.00 0.00 0.00 0.00 0.00 0.01 0.00 0.00 0.00
0.10 0.12 0.19 0.21 0.23 0.44 0.54 0.65 0.43 0.11 0.10 0.17 0.05 0.01 0.00 0.02 0.04 0.06 0.09 0.11 0.12 0.13 0.16 0.19 0.05 0.02 0.03 0.04 0.05 0.02 0.01 0.00 0.02 0.00 0.01 0.01 0.00 0.00 0.00 0.00 0.00 0.00 0.00 0.00
0.13 0.12 0.17 0.25 0.31 0.69 1.03 1.40 0.96 0.23 0.15 0.15 0.05 0.02 0.01 0.01 0.02 0.04 0.07 0.16 0.26 0.33 0.28 0.15 0.09 0.07 0.10 0.04 0.01 0.00 0.01 0.01 0.01 0.01 0.01 0.01 0.01 0.00 0.00 0.01 0.02 0.02 0.02 0.01
0.14 0.17 0.18 0.30 0.47 0.73 0.60 0.40 0.33 0.20 0.10 0.20 0.12 0.06 0.08 0.06 0.05 0.05 0.06 0.13 0.36 0.43 0.43 0.28 0.12 0.08 0.23 0.22 0.17 0.06 0.01 0.01 0.02 0.02 0.03 0.04 0.03 0.02 0.02 0.02 0.02 0.02 0.01 0.01
0.26 0.28 0.24 0.47 0.52 0.51 0.37 0.04 0.00 0.04 0.18 0.22 0.40 0.07 0.14 0.09 0.09 0.12 0.09 0.16 0.32 0.29 0.25 0.27 0.15 0.15 0.31 0.33 0.12 0.05 0.02 0.01 0.01 0.03 0.04 0.02 0.02 0.02 0.02 0.02 0.02 0.01 0.01 0.01
0.48 0.37 0.53 0.78 0.58 0.64 0.47 0.06 0.05 0.13 0.18 0.16 0.27 0.14 0.24 0.10 0.12 0.09 0.16 0.10 0.23 0.18 0.20 0.09 0.15 0.25 0.39 0.27 0.11 0.06 0.03 0.02 0.01 0.01 0.04 0.07 0.09 0.11 0.11 0.10 0.09 0.09 0.09 0.08
0.36 0.41 0.63 0.87 0.57 0.49 0.36 0.48 0.58 0.51 0.22 0.07 0.09 0.13 0.22 0.12 0.13 0.08 0.20 0.13 0.10 0.11 0.11 0.11 0.16 0.12 0.10 0.04 0.03 0.09 0.16 0.15 0.10 0.07 0.06 0.07 0.09 0.11 0.16 0.20 0.21 0.22 0.22 0.23
0.11 0.17 0.54 0.90 0.60 0.30 0.34 0.42 0.32 0.30 0.19 0.04 0.04 0.07 0.05 0.10 0.15 0.03 0.09 0.25 0.06 0.06 0.13 0.17 0.09 0.07 0.07 0.02 0.00 0.00 0.02 0.04 0.08 0.10 0.10 0.09 0.09 0.11 0.12 0.12 0.11 0.12 0.14 0.16
0.01 0.13 0.48 0.38 0.15 0.20 0.17 0.13 0.12 0.10 0.08 0.04 0.05 0.05 0.03 0.10 0.29 0.05 0.05 0.30 0.24 0.12 0.15 0.10 0.07 0.08 0.04 0.01 0.01 0.01 0.02 0.02 0.03 0.03 0.05 0.07 0.08 0.10 0.10 0.11 0.11 0.12 0.11 0.12
0.00 0.01 0.01 0.01 0.06 0.04 0.02 0.02 0.03 0.06 0.05 0.06 0.06 0.06 0.03 0.06 0.19 0.08 0.10 0.10 0.31 0.18 0.13 0.11 0.06 0.05 0.02 0.02 0.02 0.02 0.03 0.04 0.05 0.06 0.07 0.07 0.08 0.09 0.10 0.12 0.15 0.14 0.13 0.19
0.00 0.00 0.00 0.01 0.01 0.02 0.04 0.03 0.03 0.05 0.07 0.08 0.05 0.04 0.05 0.12 0.11 0.25 0.22 0.14 0.06 0.07 0.06 0.04 0.07 0.07 0.05 0.05 0.05 0.04 0.06 0.07 0.07 0.09 0.09 0.10 0.09 0.11 0.13 0.13 0.16 0.10 0.13 0.20
0.00 0.00 0.01 0.02 0.06 0.05 0.06 0.06 0.05 0.07 0.09 0.08 0.07 0.05 0.05 0.13 0.17 0.09 0.07 0.06 0.04 0.03 0.03 0.06 0.11 0.09 0.08 0.10 0.10 0.09 0.10 0.11 0.11 0.13 0.11 0.13 0.14 0.10 0.14 0.18 0.17 0.13 0.14 0.15
0.00 0.02 0.02 0.01 0.02 0.03 0.03 0.04 0.05 0.06 0.07 0.04 0.02 0.02 0.03 0.12 0.11 0.10 0.09 0.05 0.03 0.06 0.09 0.13 0.12 0.11 0.14 0.15 0.15 0.16 0.17 0.16 0.16 0.16 0.15 0.15 0.14 0.13 0.15 0.15 0.13 0.14 0.11 0.11
0.04 0.05 0.06 0.04 0.03 0.04 0.05 0.05 0.04 0.04 0.02 0.01 0.01 0.01 0.05 0.08 0.09 0.13 0.16 0.22 0.21 0.18 0.19 0.17 0.15 0.15 0.18 0.19 0.17 0.19 0.18 0.16 0.16 0.16 0.16 0.16 0.16 0.13 0.09 0.10 0.15 0.11 0.09 0.07

GFSNW_prec_precacc12_075.txt.gz
Total_Precipitation_Accumulation
0.03 0.02 0.03 0.03 0.03 0.08 0.14 0.31 0.35 0.13 0.13 0.31 0.28 0.14 0.02 0.00 0.00 0.00 0.00 0.00 0.00 0.00 0.00 0.00 0.00 0.00 0.00 0.00 0.00 0.00 0.00 0.00 0.01 0.00 0.00 0.00 0.00 0.00 0.00 0.00 0.00 0.00 0.00 0.00
0.05 0.04 0.04 0.03 0.04 0.12 0.22 0.38 0.31 0.31 0.26 0.21 0.14 0.10 0.04 0.01 0.00 0.00 0.00 0.00 0.00 0.00 0.00 0.00 0.00 0.00 0.00 0.00 0.00 0.00 0.00 0.00 0.00 0.00 0.00 0.00 0.00 0.00 0.00 0.00 0.00 0.01 0.02 0.00
0.04 0.06 0.08 0.07 0.08 0.15 0.33 0.61 0.38 0.47 0.69 0.27 0.08 0.07 0.07 0.03 0.00 0.00 0.00 0.00 0.00 0.00 0.00 0.00 0.00 0.00 0.00 0.00 0.00 0.00 0.01 0.01 0.03 0.06 0.01 0.00 0.00 0.00 0.00 0.00 0.00 0.00 0.00 0.00
0.03 0.04 0.06 0.09 0.09 0.17 0.40 0.70 0.45 0.22 0.36 0.26 0.13 0.08 0.09 0.03 0.02 0.00 0.00 0.00 0.00 0.00 0.00 0.00 0.00 0.00 0.00 0.00 0.00 0.00 0.01 0.01 0.01 0.02 0.01 0.00 0.00 0.00 0.00 0.00 0.00 0.00 0.00 0.00
0.02 0.03 0.04 0.07 0.09 0.21 0.54 0.68 0.20 0.16 0.14 0.09 0.16 0.19 0.22 0.04 0.01 0.02 0.02 0.00 0.01 0.01 0.00 0.00 0.00 0.00 0.00 0.00 0.00 0.00 0.00 0.00 0.00 0.00 0.00 0.00 0.00 0.00 0.00 0.00 0.00 0.00 0.00 0.00
0.05 0.04 0.04 0.04 0.07 0.26 0.62 0.48 0.15 0.22 0.14 0.05 0.22 0.23 0.12 0.09 0.05 0.05 0.01 0.00 0.02 0.02 0.01 0.00 0.00 0.00 0.00 0.00 0.00 0.00 0.00 0.01 0.00 0.00 0.00 0.00 0.00 0.00 0.00 0.00 0.00 0.00 0.00 0.00
0.12 0.10 0.08 0.07 0.06 0.19 0.40 0.29 0.15 0.23 0.23 0.13 0.07 0.08 0.10 0.06 0.03 0.06 0.04 0.01 0.02 0.02 0.00 0.00 0.00 0.00 0.00 0.00 0.00 0.00 0.00 0.01 0.02 0.01 0.00 0.00 0.00 0.00 0.00 0.00 0.00 0.00 0.00 0.00
0.18 0.18 0.15 0.11 0.11 0.15 0.30 0.24 0.28 0.22 0.13 0.07 0.10 0.11 0.09 0.05 0.06 0.06 0.08 0.05 0.01 0.03 0.02 0.07 0.04 0.02 0.01 0.00 0.00 0.00 0.01 0.01 0.04 0.02 0.00 0.00 0.00 0.00 0.00 0.00 0.00 0.00 0.00 0.00
0.15 0.18 0.21 0.18 0.16 0.19 0.33 0.29 0.25 0.35 0.35 0.10 0.03 0.05 0.09 0.10 0.10 0.09 0.05 0.08 0.05 0.05 0.07 0.11 0.10 0.05 0.03 0.01 0.03 0.01 0.02 0.03 0.04 0.04 0.02 0.00 0.00 0.00 0.00 0.00 0.00 0.00 0.00 0.00
0.11 0.15 0.19 0.23 0.27 0.30 0.45 0.51 0.23 0.33 0.41 0.15 0.09 0.07 0.06 0.06 0.11 0.17 0.09 0.12 0.12 0.15 0.18 0.11 0.07 0.05 0.02 0.02 0.05 0.05 0.03 0.05 0.06 0.08 0.06 0.01 0.00 0.00 0.02 0.01 0.01 0.00 0.00 0.00
0.06 0.08 0.15 0.23 0.30 0.39 0.65 0.75 0.21 0.22 0.35 0.18 0.07 0.05 0.07 0.07 0.07 0.15 0.19 0.28 0.26 0.26 0.21 0.09 0.06 0.03 0.02 0.00 0.03 0.04 0.03 0.03 0.03 0.05 0.06 0.01 0.00 0.01 0.03 0.03 0.00 0.00 0.00 0.00
0.05 0.05 0.09 0.16 0.27 0.39 0.67 0.97 0.41 0.17 0.34 0.22 0.06 0.04 0.04 0.07 0.09 0.16 0.22 0.12 0.05 0.03 0.07 0.05 0.05 0.04 0.02 0.01 0.01 0.01 0.05 0.01 0.02 0.00 0.00 0.00 0.00 0.04 0.01 0.00 0.01 0.00 0.00 0.00
0.09 0.11 0.09 0.12 0.20 0.35 0.71 0.80 0.35 0.45 0.78 0.34 0.08 0.05 0.02 0.03 0.05 0.09 0.12 0.06 0.08 0.06 0.05 0.10 0.08 0.06 0.02 0.02 0.00 0.00 0.00 0.00 0.03 0.03 0.01 0.01 0.00 0.00 0.00 0.00 0.00 0.00 0.00 0.00
0.09 0.14 0.19 0.15 0.18 0.33 0.64 0.65 0.36 0.30 0.38 0.26 0.10 0.00 0.02 0.02 0.04 0.06 0.03 0.04 0.07 0.10 0.12 0.09 0.08 0.04 0.01 0.01 0.00 0.00 0.00 0.00 0.00 0.00 0.00 0.00 0.00 0.00 0.00 0.00 0.01 0.00 0.00 0.00
0.08 0.13 0.21 0.22 0.24 0.46 0.59 0.50 0.39 0.13 0.13 0.22 0.05 0.01 0.00 0.01 0.04 0.07 0.12 0.13 0.14 0.20 0.23 0.22 0.06 0.04 0.04 0.03 0.06 0.03 0.01 0.00 0.01 0.01 0.01 0.00 0.00 0.00 0.00 0.00 0.00 0.00 0.00 0.00
0.11 0.11 0.17 0.27 0.34 0.71 1.03 1.30 0.87 0.25 0.16 0.16 0.09 0.02 0.00 0.00 0.02 0.06 0.12 0.19 0.31 0.43 0.35 0.19 0.09 0.07 0.11 0.08 0.03 0.01 0.03 0.01 0.00 0.01 0.00 0.00 0.00 0.00 0.00 0.01 0.02 0.01 0.01 0.01
0.13 0.14 0.16 0.35 0.49 0.64 0.53 0.31 0.27 0.23 0.14 0.18 0.10 0.05 0.03 0.01 0.06 0.08 0.12 0.21 0.45 0.50 0.50 0.31 0.12 0.10 0.18 0.17 0.19 0.10 0.01 0.00 0.00 0.00 0.00 0.00 0.00 0.01 0.01 0.01 0.01 0.01 0.01 0.01
0.20 0.21 0.27 0.52 0.47 0.50 0.43 0.04 0.01 0.03 0.15 0.16 0.25 0.08 0.13 0.05 0.09 0.14 0.13 0.25 0.33 0.30 0.25 0.17 0.08 0.12 0.25 0.26 0.08 0.04 0.02 0.01 0.00 0.00 0.01 0.01 0.00 0.00 0.01 0.01 0.01 0.01 0.01 0.01
0.40 0.47 0.80 0.87 0.56 0.67 0.38 0.08 0.07 0.09 0.15 0.12 0.27 0.16 0.25 0.09 0.12 0.11 0.19 0.11 0.20 0.17 0.21 0.07 0.08 0.16 0.18 0.15 0.06 0.04 0.02 0.01 0.01 0.01 0.02 0.04 0.07 0.09 0.09 0.09 0.09 0.10 0.09 0.09
0.45 0.56 0.67 0.78 0.55 0.33 0.35 0.57 0.55 0.45 0.23 0.09 0.10 0.18 0.24 0.13 0.14 0.11 0.23 0.13 0.14 0.15 0.14 0.13 0.18 0.14 0.09 0.02 0.01 0.03 0.08 0.10 0.09 0.06 0.06 0.06 0.09 0.10 0.15 0.19 0.21 0.22 0.23 0.24
0.13 0.27 0.57 0.92 0.62 0.31 0.37 0.45 0.32 0.33 0.23 0.05 0.07 0.09 0.06 0.12 0.18 0.06 0.12 0.22 0.08 0.10 0.14 0.19 0.13 0.07 0.07 0.01 0.00 0.00 0.01 0.01 0.03 0.09 0.10 0.09 0.09 0.10 0.12 0.12 0.12 0.13 0.15 0.17
0.02 0.15 0.56 0.48 0.26 0.28 0.20 0.16 0.14 0.12 0.09 0.05 0.06 0.05 0.04 0.10 0.31 0.08 0.07 0.30 0.26 0.14 0.13 0.11 0.08 0.07 0.03 0.01 0.01 0.01 0.01 0.02 0.02 0.03 0.05 0.07 0.08 0.08 0.09 0.10 0.11 0.11 0.11 0.12
0.00 0.01 0.02 0.02 0.06 0.05 0.03 0.03 0.03 0.04 0.04 0.06 0.06 0.07 0.05 0.12 0.30 0.08 0.08 0.09 0.31 0.17 0.12 0.11 0.06 0.04 0.02 0.02 0.01 0.02 0.02 0.03 0.04 0.06 0.07 0.07 0.08 0.08 0.08 0.09 0.11 0.10 0.10 0.15
0.00 0.00 0.00 0.01 0.01 0.02 0.03 0.03 0.03 0.04 0.06 0.08 0.05 0.02 0.01 0.05 0.09 0.12 0.14 0.09 0.03 0.06 0.05 0.04 0.07 0.05 0.04 0.04 0.04 0.03 0.05 0.06 0.06 0.08 0.09 0.09 0.09 0.10 0.10 0.10 0.12 0.07 0.09 0.15
0.00 0.00 0.01 0.02 0.05 0.05 0.06 0.05 0.05 0.06 0.09 0.08 0.05 0.02 0.01 0.04 0.06 0.03 0.04 0.05 0.04 0.03 0.04 0.06 0.08 0.07 0.08 0.09 0.09 0.09 0.09 0.10 0.10 0.11 0.10 0.12 0.12 0.09 0.12 0.15 0.15 0.11 0.12 0.12
0.00 0.01 0.02 0.01 0.03 0.05 0.04 0.05 0.06 0.07 0.07 0.03 0.01 0.01 0.02 0.07 0.07 0.06 0.06 0.04 0.03 0.05 0.08 0.11 0.10 0.10 0.13 0.14 0.14 0.15 0.16 0.15 0.14 0.14 0.14 0.14 0.14 0.12 0.14 0.14 0.12 0.12 0.10 0.09
0.01 0.02 0.02 0.03 0.03 0.04 0.06 0.06 0.05 0.04 0.02 0.01 0.01 0.01 0.05 0.08 0.07 0.11 0.14 0.18 0.17 0.16 0.17 0.17 0.17 0.15 0.16 0.16 0.15 0.16 0.16 0.15 0.15 0.14 0.15 0.14 0.15 0.13 0.10 0.10 0.14 0.10 0.07 0.05

GFSNW_prec_precacc12_078.txt.gz
Total_Precipitation_Accumulation
0.05 0.05 0.04 0.04 0.05 0.08 0.08 0.12 0.17 0.09 0.15 0.27 0.28 0.15 0.02 0.00 0.00 0.00 0.00 0.00 0.00 0.00 0.00 0.00 0.00 0.01 0.01 0.00 0.00 0.00 0.00 0.01 0.01 0.00 0.00 0.00 0.00 0.00 0.00 0.03 0.04 0.02 0.01 0.01
0.07 0.06 0.06 0.05 0.06 0.11 0.11 0.17 0.13 0.20 0.33 0.21 0.14 0.11 0.04 0.01 0.00 0.00 0.00 0.00 0.00 0.00 0.00 0.00 0.00 0.00 0.00 0.00 0.00 0.00 0.00 0.00 0.00 0.04 0.03 0.00 0.00 0.00 0.00 0.00 0.02 0.11 0.11 0.01
0.04 0.06 0.08 0.08 0.08 0.16 0.21 0.30 0.23 0.21 0.53 0.29 0.09 0.09 0.08 0.04 0.00 0.00 0.00 0.00 0.00 0.00 0.00 0.00 0.00 0.00 0.00 0.00 0.00 0.00 0.00 0.01 0.05 0.08 0.11 0.04 0.01 0.00 0.01 0.01 0.01 0.01 0.05 0.02
0.04 0.03 0.05 0.09 0.08 0.18 0.25 0.28 0.24 0.15 0.27 0.23 0.14 0.10 0.12 0.04 0.02 0.01 0.00 0.00 0.00 0.00 0.00 0.00 0.00 0.00 0.00 0.00 0.00 0.00 0.01 0.02 0.02 0.04 0.03 0.01 0.06 0.04 0.03 0.05 0.02 0.02 0.01 0.01
0.04 0.02 0.03 0.05 0.08 0.21 0.30 0.27 0.10 0.12 0.14 0.12 0.19 0.20 0.22 0.05 0.03 0.03 0.03 0.01 0.01 0.01 0.00 0.00 0.00 0.01 0.01 0.00 0.00 0.00 0.00 0.00 0.00 0.00 0.01 0.00 0.00 0.01 0.01 0.01 0.01 0.00 0.00 0.01
0.20 0.10 0.03 0.02 0.06 0.23 0.30 0.20 0.10 0.25 0.15 0.04 0.22 0.25 0.13 0.09 0.07 0.06 0.03 0.01 0.03 0.02 0.01 0.00 0.00 0.01 0.01 0.00 0.00 0.00 0.00 0.01 0.00 0.00 0.00 0.00 0.00 0.00 0.00 0.00 0.00 0.00 0.00 0.00
0.30 0.22 0.09 0.05 0.04 0.13 0.17 0.16 0.13 0.23 0.19 0.13 0.07 0.08 0.12 0.09 0.05 0.07 0.05 0.04 0.10 0.04 0.01 0.01 0.02 0.00 0.00 0.00 0.00 0.00 0.00 0.01 0.02 0.01 0.00 0.00 0.00 0.00 0.00 0.00 0.00 0.00 0.00 0.00
0.19 0.22 0.21 0.12 0.08 0.09 0.17 0.14 0.28 0.26 0.13 0.05 0.09 0.10 0.09 0.07 0.09 0.08 0.09 0.11 0.08 0.10 0.07 0.11 0.08 0.04 0.04 0.01 0.00 0.00 0.00 0.00 0.04 0.02 0.00 0.00 0.00 0.00 0.00 0.00 0.00 0.00 0.00 0.00
0.13 0.16 0.21 0.23 0.16 0.11 0.20 0.17 0.20 0.35 0.37 0.08 0.01 0.04 0.08 0.09 0.11 0.11 0.07 0.13 0.12 0.15 0.16 0.15 0.12 0.09 0.06 0.04 0.03 0.01 0.01 0.01 0.04 0.05 0.02 0.00 0.00 0.00 0.00 0.00 0.00 0.00 0.00 0.00
0.09 0.13 0.16 0.19 0.21 0.20 0.26 0.30 0.15 0.27 0.35 0.11 0.09 0.06 0.07 0.07 0.13 0.21 0.17 0.23 0.18 0.21 0.23 0.15 0.09 0.07 0.07 0.08 0.11 0.06 0.04 0.05 0.04 0.05 0.04 0.01 0.00 0.00 0.01 0.02 0.03 0.00 0.00 0.00
0.07 0.08 0.14 0.20 0.23 0.26 0.36 0.45 0.13 0.18 0.27 0.08 0.04 0.04 0.08 0.10 0.12 0.21 0.28 0.32 0.27 0.27 0.24 0.13 0.09 0.08 0.06 0.02 0.07 0.09 0.05 0.05 0.05 0.05 0.08 0.02 0.00 0.02 0.07 0.10 0.02 0.00 0.00 0.00
0.08 0.06 0.07 0.13 0.22 0.31 0.47 0.64 0.28 0.14 0.22 0.13 0.04 0.03 0.04 0.08 0.14 0.27 0.31 0.25 0.11 0.05 0.08 0.09 0.11 0.10 0.08 0.03 0.04 0.04 0.09 0.01 0.02 0.00 0.01 0.00 0.00 0.06 0.02 0.00 0.01 0.00 0.00 0.00
0.10 0.11 0.08 0.10 0.16 0.31 0.63 0.70 0.27 0.36 0.72 0.30 0.06 0.05 0.01 0.01 0.05 0.19 0.39 0.11 0.11 0.13 0.19 0.25 0.19 0.15 0.08 0.06 0.02 0.03 0.02 0.03 0.07 0.09 0.03 0.03 0.06 0.02 0.00 0.00 0.00 0.00 0.00 0.00
0.07 0.12 0.16 0.14 0.16 0.30 0.66 0.74 0.40 0.33 0.46 0.27 0.09 0.00 0.02 0.01 0.02 0.04 0.06 0.07 0.07 0.15 0.24 0.26 0.14 0.10 0.05 0.05 0.02 0.01 0.01 0.03 0.02 0.07 0.05 0.03 0.10 0.12 0.01 0.00 0.00 0.00 0.00 0.00
0.07 0.11 0.20 0.22 0.21 0.41 0.61 0.64 0.46 0.18 0.17 0.26 0.06 0.01 0.00 0.01 0.04 0.05 0.08 0.12 0.14 0.23 0.29 0.26 0.08 0.06 0.07 0.03 0.04 0.01 0.01 0.02 0.04 0.08 0.06 0.06 0.08 0.02 0.00 0.00 0.00 0.00 0.00 0.00
0.06 0.08 0.16 0.30 0.34 0.64 0.96 1.38 0.89 0.29 0.18 0.28 0.18 0.05 0.00 0.00 0.02 0.05 0.10 0.19 0.30 0.43 0.39 0.21 0.13 0.11 0.12 0.10 0.06 0.03 0.05 0.01 0.00 0.02 0.00 0.00 0.00 0.00 0.00 0.00 0.00 0.00 0.01 0.01
0.07 0.08 0.15 0.39 0.52 0.60 0.48 0.32 0.28 0.25 0.20 0.26 0.12 0.10 0.03 0.01 0.06 0.07 0.13 0.24 0.51 0.54 0.57 0.34 0.12 0.12 0.20 0.12 0.06 0.11 0.04 0.01 0.00 0.00 0.00 0.00 0.00 0.00 0.00 0.00 0.00 0.00 0.00 0.00
0.15 0.12 0.25 0.53 0.54 0.53 0.46 0.05 0.01 0.04 0.22 0.14 0.11 0.13 0.08 0.03 0.08 0.11 0.13 0.28 0.35 0.32 0.27 0.18 0.09 0.13 0.29 0.31 0.05 0.00 0.00 0.00 0.00 0.00 0.00 0.00 0.00 0.00 0.00 0.00 0.00 0.00 0.00 0.00
0.27 0.42 0.80 0.89 0.63 0.70 0.42 0.09 0.08 0.11 0.17 0.11 0.08 0.12 0.19 0.04 0.08 0.12 0.19 0.18 0.28 0.18 0.19 0.07 0.09 0.14 0.22 0.14 0.02 0.00 0.00 0.00 0.00 0.00 0.01 0.02 0.02 0.01 0.03 0.06 0.07 0.08 0.08 0.09
0.52 0.67 0.69 0.67 0.49 0.42 0.37 0.60 0.62 0.49 0.18 0.09 0.07 0.20 0.26 0.08 0.09 0.13 0.23 0.14 0.14 0.15 0.09 0.11 0.19 0.13 0.07 0.01 0.00 0.00 0.00 0.01 0.03 0.04 0.04 0.05 0.07 0.07 0.11 0.15 0.19 0.21 0.23 0.24
0.22 0.33 0.46 0.64 0.51 0.34 0.36 0.42 0.29 0.23 0.14 0.04 0.12 0.14 0.09 0.13 0.19 0.08 0.13 0.17 0.07 0.14 0.16 0.16 0.17 0.08 0.06 0.01 0.00 0.00 0.00 0.00 0.01 0.03 0.04 0.05 0.07 0.09 0.11 0.12 0.12 0.13 0.15 0.17
0.04 0.12 0.37 0.42 0.39 0.36 0.23 0.17 0.12 0.12 0.12 0.06 0.10 0.09 0.07 0.11 0.33 0.11 0.06 0.19 0.21 0.15 0.09 0.08 0.10 0.06 0.02 0.01 0.01 0.01 0.01 0.01 0.01 0.01 0.02 0.03 0.04 0.06 0.08 0.09 0.11 0.12 0.12 0.12
0.01 0.01 0.04 0.07 0.12 0.08 0.08 0.06 0.06 0.05 0.04 0.06 0.06 0.08 0.05 0.12 0.31 0.08 0.08 0.07 0.25 0.14 0.10 0.09 0.06 0.04 0.02 0.01 0.01 0.01 0.01 0.02 0.02 0.03 0.04 0.04 0.05 0.06 0.07 0.08 0.10 0.10 0.10 0.14
0.00 0.00 0.00 0.01 0.01 0.02 0.03 0.04 0.03 0.03 0.05 0.07 0.04 0.01 0.01 0.08 0.11 0.10 0.07 0.06 0.03 0.05 0.06 0.06 0.08 0.04 0.04 0.04 0.04 0.03 0.04 0.05 0.05 0.07 0.06 0.07 0.07 0.08 0.09 0.09 0.10 0.07 0.09 0.13
0.00 0.00 0.01 0.02 0.04 0.04 0.05 0.04 0.04 0.05 0.07 0.06 0.04 0.01 0.00 0.01 0.03 0.03 0.02 0.04 0.04 0.03 0.06 0.07 0.07 0.06 0.07 0.08 0.08 0.08 0.08 0.09 0.09 0.09 0.08 0.08 0.09 0.06 0.09 0.12 0.12 0.10 0.10 0.11
0.00 0.01 0.03 0.03 0.06 0.06 0.05 0.06 0.06 0.06 0.06 0.02 0.01 0.00 0.01 0.04 0.03 0.03 0.04 0.04 0.04 0.07 0.09 0.10 0.09 0.09 0.11 0.12 0.12 0.12 0.12 0.12 0.12 0.12 0.12 0.12 0.12 0.11 0.12 0.12 0.11 0.11 0.10 0.09
0.00 0.02 0.03 0.04 0.04 0.06 0.06 0.06 0.06 0.04 0.03 0.01 0.01 0.01 0.03 0.04 0.04 0.07 0.09 0.13 0.15 0.14 0.14 0.15 0.15 0.13 0.13 0.13 0.12 0.13 0.13 0.13 0.13 0.12 0.13 0.13 0.13 0.12 0.09 0.09 0.12 0.08 0.06 0.03

GFSNW_prec_precacc12_081.txt.gz
Total_Precipitation_Accumulation
0.07 0.07 0.07 0.05 0.06 0.09 0.05 0.07 0.09 0.06 0.15 0.21 0.16 0.13 0.02 0.00 0.00 0.00 0.00 0.00 0.00 0.00 0.00 0.00 0.00 0.01 0.01 0.00 0.00 0.00 0.01 0.01 0.01 0.00 0.00 0.00 0.00 0.00 0.04 0.14 0.10 0.03 0.06 0.11
0.08 0.07 0.08 0.09 0.09 0.11 0.14 0.19 0.04 0.09 0.45 0.19 0.11 0.08 0.03 0.01 0.00 0.00 0.00 0.00 0.00 0.00 0.00 0.00 0.00 0.00 0.00 0.00 0.00 0.00 0.00 0.00 0.00 0.04 0.04 0.01 0.01 0.00 0.05 0.04 0.07 0.22 0.19 0.09
0.05 0.06 0.08 0.07 0.09 0.15 0.18 0.25 0.11 0.06 0.29 0.31 0.11 0.10 0.07 0.04 0.00 0.00 0.00 0.00 0.00 0.00 0.00 0.00 0.00 0.00 0.00 0.00 0.00 0.00 0.00 0.01 0.04 0.09 0.21 0.18 0.12 0.05 0.03 0.07 0.07 0.05 0.12 0.03
0.07 0.06 0.07 0.08 0.08 0.19 0.20 0.19 0.09 0.08 0.14 0.11 0.13 0.11 0.15 0.06 0.03 0.01 0.00 0.00 0.00 0.00 0.00 0.00 0.00 0.00 0.00 0.00 0.00 0.00 0.01 0.02 0.02 0.04 0.04 0.06 0.13 0.09 0.15 0.13 0.10 0.08 0.06 0.05
0.06 0.05 0.05 0.05 0.07 0.20 0.24 0.14 0.05 0.07 0.06 0.10 0.17 0.17 0.19 0.05 0.03 0.04 0.04 0.01 0.01 0.01 0.00 0.00 0.00 0.01 0.02 0.01 0.00 0.00 0.00 0.00 0.00 0.00 0.01 0.00 0.00 0.01 0.08 0.14 0.15 0.09 0.06 0.09
0.24 0.23 0.16 0.07 0.05 0.22 0.24 0.11 0.06 0.19 0.10 0.02 0.15 0.19 0.12 0.10 0.07 0.06 0.04 0.01 0.03 0.03 0.01 0.00 0.00 0.02 0.01 0.01 0.01 0.00 0.00 0.01 0.00 0.00 0.00 0.00 0.00 0.00 0.00 0.00 0.02 0.01 0.00 0.00
0.29 0.31 0.26 0.16 0.05 0.11 0.12 0.07 0.09 0.18 0.10 0.06 0.03 0.05 0.11 0.10 0.06 0.08 0.05 0.06 0.11 0.05 0.04 0.03 0.03 0.01 0.01 0.01 0.00 0.00 0.00 0.00 0.02 0.01 0.00 0.00 0.00 0.00 0.00 0.00 0.00 0.00 0.00 0.00
0.15 0.20 0.27 0.20 0.07 0.07 0.14 0.08 0.18 0.21 0.11 0.02 0.03 0.08 0.08 0.08 0.09 0.08 0.09 0.11 0.08 0.11 0.14 0.19 0.11 0.05 0.04 0.01 0.00 0.00 0.00 0.00 0.02 0.01 0.00 0.00 0.00 0.00 0.00 0.00 0.00 0.00 0.00 0.00
0.09 0.11 0.17 0.27 0.27 0.12 0.16 0.11 0.13 0.29 0.32 0.06 0.00 0.01 0.06 0.09 0.10 0.09 0.07 0.15 0.11 0.16 0.22 0.19 0.12 0.09 0.07 0.04 0.03 0.00 0.00 0.00 0.02 0.03 0.02 0.00 0.00 0.00 0.00 0.00 0.00 0.00 0.00 0.00
0.07 0.08 0.09 0.14 0.23 0.29 0.25 0.20 0.09 0.22 0.23 0.08 0.09 0.08 0.06 0.08 0.13 0.17 0.19 0.24 0.19 0.21 0.28 0.16 0.08 0.07 0.08 0.12 0.15 0.09 0.03 0.05 0.04 0.03 0.05 0.01 0.00 0.00 0.00 0.02 0.03 0.00 0.00 0.00
0.08 0.08 0.07 0.10 0.15 0.25 0.44 0.34 0.07 0.13 0.16 0.03 0.03 0.03 0.08 0.09 0.13 0.22 0.31 0.25 0.41 0.32 0.21 0.11 0.09 0.09 0.08 0.10 0.16 0.15 0.06 0.06 0.06 0.05 0.07 0.02 0.00 0.02 0.08 0.13 0.03 0.00 0.00 0.00
0.07 0.06 0.06 0.07 0.14 0.20 0.43 0.56 0.16 0.11 0.13 0.07 0.02 0.01 0.03 0.08 0.14 0.29 0.41 0.45 0.24 0.11 0.09 0.10 0.13 0.14 0.13 0.07 0.09 0.13 0.17 0.02 0.04 0.01 0.01 0.01 0.06 0.08 0.05 0.04 0.06 0.04 0.00 0.00
0.08 0.08 0.07 0.08 0.10 0.21 0.42 0.51 0.18 0.22 0.51 0.20 0.02 0.01 0.00 0.01 0.05 0.19 0.39 0.20 0.23 0.18 0.20 0.28 0.24 0.20 0.12 0.10 0.05 0.12 0.12 0.13 0.11 0.13 0.09 0.11 0.20 0.14 0.02 0.04 0.00 0.01 0.02 0.00
0.04 0.06 0.09 0.09 0.10 0.19 0.46 0.56 0.26 0.21 0.36 0.18 0.03 0.00 0.00 0.01 0.02 0.04 0.06 0.14 0.15 0.16 0.23 0.33 0.30 0.17 0.10 0.21 0.09 0.04 0.06 0.14 0.12 0.15 0.13 0.18 0.22 0.50 0.07 0.00 0.00 0.00 0.00 0.00
0.05 0.07 0.12 0.14 0.16 0.28 0.44 0.52 0.29 0.11 0.12 0.17 0.05 0.01 0.00 0.01 0.03 0.05 0.08 0.10 0.13 0.22 0.24 0.21 0.09 0.08 0.10 0.06 0.09 0.05 0.03 0.10 0.12 0.24 0.31 0.26 0.25 0.11 0.06 0.00 0.00 0.00 0.00 0.00
0.05 0.07 0.13 0.22 0.27 0.44 0.84 1.35 0.82 0.23 0.12 0.29 0.21 0.06 0.01 0.00 0.02 0.04 0.08 0.11 0.22 0.37 0.35 0.17 0.13 0.14 0.19 0.13 0.11 0.10 0.05 0.01 0.03 0.14 0.09 0.10 0.03 0.01 0.00 0.00 0.00 0.00 0.00 0.00
0.05 0.07 0.14 0.36 0.42 0.38 0.49 0.35 0.26 0.22 0.23 0.46 0.20 0.12 0.07 0.01 0.08 0.07 0.12 0.21 0.34 0.35 0.38 0.23 0.10 0.13 0.21 0.19 0.13 0.14 0.05 0.03 0.00 0.01 0.03 0.02 0.00 0.00 0.00 0.00 0.00 0.00 0.00 0.00
0.07 0.10 0.23 0.51 0.54 0.51 0.36 0.04 0.01 0.05 0.34 0.25 0.15 0.16 0.16 0.07 0.10 0.10 0.12 0.24 0.27 0.28 0.20 0.13 0.06 0.13 0.23 0.30 0.10 0.00 0.00 0.00 0.00 0.00 0.00 0.00 0.00 0.00 0.00 0.00 0.00 0.00 0.00 0.00
0.12 0.38 0.81 1.09 0.80 0.56 0.30 0.10 0.08 0.13 0.23 0.14 0.07 0.13 0.17 0.04 0.07 0.09 0.10 0.16 0.25 0.18 0.16 0.06 0.10 0.13 0.23 0.16 0.02 0.00 0.00 0.00 0.00 0.00 0.00 0.00 0.01 0.00 0.01 0.01 0.01 0.01 0.02 0.07
0.44 0.74 0.73 0.73 0.54 0.39 0.38 0.78 0.81 0.63 0.23 0.11 0.08 0.14 0.23 0.06 0.07 0.12 0.17 0.12 0.14 0.16 0.09 0.08 0.16 0.14 0.06 0.01 0.00 0.00 0.00 0.00 0.00 0.00 0.00 0.00 0.01 0.01 0.02 0.03 0.05 0.08 0.11 0.16
0.33 0.45 0.37 0.47 0.50 0.36 0.44 0.54 0.37 0.27 0.12 0.04 0.10 0.09 0.09 0.10 0.11 0.10 0.13 0.16 0.08 0.14 0.13 0.08 0.19 0.09 0.05 0.00 0.00 0.00 0.00 0.00 0.00 0.01 0.01 0.01 0.02 0.03 0.03 0.04 0.06 0.09 0.13 0.16
0.09 0.10 0.28 0.43 0.46 0.31 0.23 0.20 0.11 0.09 0.09 0.05 0.09 0.12 0.12 0.07 0.22 0.12 0.05 0.14 0.14 0.15 0.12 0.16 0.15 0.08 0.02 0.00 0.00 0.00 0.01 0.00 0.00 0.01 0.01 0.01 0.02 0.02 0.02 0.03 0.05 0.07 0.09 0.11
0.01 0.01 0.08 0.17 0.20 0.14 0.18 0.08 0.06 0.06 0.03 0.05 0.05 0.12 0.07 0.11 0.32 0.12 0.07 0.07 0.24 0.10 0.10 0.09 0.07 0.04 0.01 0.01 0.01 0.01 0.01 0.01 0.01 0.02 0.02 0.03 0.03 0.03 0.03 0.05 0.07 0.08 0.08 0.11
0.00 0.00 0.01 0.04 0.03 0.03 0.04 0.05 0.02 0.02 0.04 0.05 0.03 0.01 0.01 0.07 0.11 0.08 0.06 0.03 0.01 0.04 0.07 0.07 0.08 0.03 0.04 0.03 0.03 0.02 0.03 0.03 0.03 0.04 0.04 0.05 0.05 0.06 0.07 0.07 0.08 0.06 0.07 0.10
0.00 0.00 0.01 0.01 0.03 0.05 0.05 0.03 0.03 0.04 0.06 0.04 0.03 0.01 0.00 0.01 0.04 0.03 0.02 0.02 0.03 0.03 0.07 0.08 0.06 0.04 0.05 0.06 0.06 0.06 0.06 0.06 0.06 0.06 0.06 0.06 0.06 0.05 0.07 0.09 0.09 0.07 0.07 0.08
0.00 0.01 0.04 0.06 0.08 0.07 0.05 0.06 0.06 0.07 0.08 0.02 0.02 0.00 0.00 0.02 0.00 0.01 0.02 0.03 0.04 0.07 0.08 0.08 0.06 0.07 0.08 0.08 0.09 0.09 0.09 0.08 0.07 0.08 0.08 0.08 0.08 0.08 0.09 0.09 0.08 0.08 0.07 0.07
0.01 0.02 0.03 0.05 0.04 0.06 0.06 0.07 0.07 0.05 0.04 0.01 0.00 0.00 0.01 0.01 0.01 0.02 0.04 0.08 0.10 0.10 0.11 0.12 0.11 0.10 0.09 0.09 0.09 0.10 0.10 0.09 0.10 0.09 0.09 0.10 0.10 0.09 0.07 0.07 0.09 0.06 0.03 0.02